Observation data for Hackberry on 05/27/2019      Previous  Date  Next       Current Mesonet Observations  Soil Data  Daily Summary Page  Observations in Plain Language
KHA3 270500Z 14009KT 23/19 A2986 RMK A01 T02310194  RH  079%=      5-min Rain = 0
KHA3 270501Z 14009KT 23/19 A2986 RMK A01 T02310193  RH  079%=      5-min Rain = 0
KHA3 270502Z 14010KT 23/19 A2986 RMK A01 T02310193  RH  079%=      5-min Rain = 0
KHA3 270503Z 14010KT 23/19 A2986 RMK A01 T02310193  RH  079%=      5-min Rain = 0
KHA3 270504Z 14010KT 23/19 A2986 RMK A01 T02310193  RH  079%=      5-min Rain = 0
KHA3 270505Z 14011KT 23/19 A2986 RMK A01 T02310193  RH  079%=      5-min Rain = 0
KHA3 270506Z 14010KT 23/19 A2985 RMK A01 T02310193  RH  079%=      5-min Rain = 0
KHA3 270507Z 14011KT 23/19 A2985 RMK A01 T02320193  RH  079%=      5-min Rain = 0
KHA3 270508Z 14011KT 23/19 A2985 RMK A01 T02310193  RH  079%=      5-min Rain = 0
KHA3 270509Z 14010KT 23/19 A2985 RMK A01 T02310193  RH  079%=      5-min Rain = 0
KHA3 270510Z 14011KT 23/19 A2985 RMK A01 T02310193  RH  079%=      5-min Rain = 0
KHA3 270511Z 14011KT 23/19 A2985 RMK A01 T02310193  RH  079%=      5-min Rain = 0
KHA3 270512Z 14010KT 23/19 A2985 RMK A01 T02310193  RH  079%=      5-min Rain = 0
KHA3 270513Z 14010KT 23/19 A2985 RMK A01 T02300193  RH  079%=      5-min Rain = 0
KHA3 270514Z 14012KT 23/19 A2985 RMK A01 T02300193  RH  079%=      5-min Rain = 0
KHA3 270515Z 14010KT 23/19 A2985 RMK A01 T02300192  RH  079%=      5-min Rain = 0
KHA3 270516Z 14010KT 23/19 A2985 RMK A01 T02300193  RH  079%=      5-min Rain = 0
KHA3 270517Z 14011KT 23/19 A2985 RMK A01 T02300193  RH  080%=      5-min Rain = 0
KHA3 270518Z 14010KT 23/19 A2985 RMK A01 T02300193  RH  080%=      5-min Rain = 0
KHA3 270519Z 14011KT 23/19 A2985 RMK A01 T02290193  RH  080%=      5-min Rain = 0
KHA3 270520Z 14010KT 23/19 A2985 RMK A01 T02290193  RH  080%=      5-min Rain = 0
KHA3 270521Z 14010KT 23/19 A2985 RMK A01 T02280193  RH  080%=      5-min Rain = 0
KHA3 270522Z 14011KT 23/19 A2985 RMK A01 T02280193  RH  080%=      5-min Rain = 0
KHA3 270523Z 14011KT 23/19 A2985 RMK A01 T02280192  RH  080%=      5-min Rain = 0
KHA3 270524Z 14010KT 23/19 A2985 RMK A01 T02280192  RH  080%=      5-min Rain = 0
KHA3 270525Z 14011KT 23/19 A2985 RMK A01 T02280193  RH  080%=      5-min Rain = 0
KHA3 270526Z 15010KT 23/19 A2985 RMK A01 T02280193  RH  081%=      5-min Rain = 0
KHA3 270527Z 15012KT 23/19 A2985 RMK A01 T02270193  RH  081%=      5-min Rain = 0
KHA3 270528Z 14010KT 23/19 A2985 RMK A01 T02270193  RH  081%=      5-min Rain = 0
KHA3 270529Z 15010KT 23/19 A2985 RMK A01 T02270193  RH  081%=      5-min Rain = 0
KHA3 270530Z 14010KT 23/19 A2985 RMK A01 T02260193  RH  081%=      5-min Rain = 0
KHA3 270531Z 15011KT 23/19 A2985 RMK A01 T02260193  RH  082%=      5-min Rain = 0
KHA3 270532Z 14011KT 23/19 A2985 RMK A01 T02250192  RH  082%=      5-min Rain = 0
KHA3 270533Z 15011KT 23/19 A2985 RMK A01 T02250192  RH  082%=      5-min Rain = 0
KHA3 270534Z 15012KT 23/19 A2985 RMK A01 T02260192  RH  081%=      5-min Rain = 0
KHA3 270535Z 14011KT 23/19 A2985 RMK A01 T02260192  RH  081%=      5-min Rain = 0
KHA3 270536Z 15011KT 23/19 A2985 RMK A01 T02260192  RH  081%=      5-min Rain = 0
KHA3 270537Z 15013KT 23/19 A2985 RMK A01 T02260192  RH  081%=      5-min Rain = 0
KHA3 270538Z 15012KT 23/19 A2984 RMK A01 T02260192  RH  081%=      5-min Rain = 0
KHA3 270539Z 14010KT 23/19 A2984 RMK A01 T02260192  RH  081%=      5-min Rain = 0
KHA3 270540Z 15011KT 23/19 A2984 RMK A01 T02260192  RH  081%=      5-min Rain = 0
KHA3 270541Z 15011KT 23/19 A2984 RMK A01 T02270193  RH  081%=      5-min Rain = 0
KHA3 270542Z 15013KT 23/19 A2984 RMK A01 T02260192  RH  081%=      5-min Rain = 0
KHA3 270543Z 15013KT 23/19 A2984 RMK A01 T02260192  RH  081%=      5-min Rain = 0
KHA3 270544Z 15012KT 23/19 A2984 RMK A01 T02260192  RH  081%=      5-min Rain = 0
KHA3 270545Z 15013KT 23/19 A2984 RMK A01 T02260192  RH  081%=      5-min Rain = 0
KHA3 270546Z 15013G18KT 23/19 A2984 RMK A01 T02260192  RH  081%=      5-min Rain = 0
KHA3 270547Z 15012KT 23/19 A2984 RMK A01 T02260192  RH  081%=      5-min Rain = 0
KHA3 270548Z 15013KT 23/19 A2984 RMK A01 T02260192  RH  081%=      5-min Rain = 0
KHA3 270549Z 15014KT 23/19 A2984 RMK A01 T02260192  RH  081%=      5-min Rain = 0
KHA3 270550Z 15014KT 23/19 A2984 RMK A01 T02260191  RH  081%=      5-min Rain = 0
KHA3 270551Z 15013KT 23/19 A2984 RMK A01 T02260191  RH  081%=      5-min Rain = 0
KHA3 270552Z 15013KT 23/19 A2984 RMK A01 T02260191  RH  081%=      5-min Rain = 0
KHA3 270553Z 14013KT 23/19 A2984 RMK A01 T02260191  RH  081%=      5-min Rain = 0
KHA3 270554Z 15014KT 23/19 A2983 RMK A01 T02260192  RH  081%=      5-min Rain = 0
KHA3 270555Z 15014KT 23/19 A2983 RMK A01 T02260192  RH  081%=      5-min Rain = 0
KHA3 270556Z 15013KT 23/19 A2983 RMK A01 T02260191  RH  081%=      5-min Rain = 0
KHA3 270557Z 15012KT 23/19 A2983 RMK A01 T02260191  RH  081%=      5-min Rain = 0
KHA3 270558Z 15012KT 23/19 A2983 RMK A01 T02260192  RH  081%=      5-min Rain = 0
KHA3 270559Z 15013KT 23/19 A2983 RMK A01 T02250192  RH  081%=      5-min Rain = 0
KHA3 270600Z 15015KT 23/19 A2983 RMK A01 T02250191  RH  081%=      5-min Rain = 0
KHA3 270601Z 15012KT 23/19 A2983 RMK A01 T02250191  RH  081%=      5-min Rain = 0
KHA3 270602Z 15013G18KT 23/19 A2983 RMK A01 T02250191  RH  081%=      5-min Rain = 0
KHA3 270603Z 15016KT 23/19 A2983 RMK A01 T02250191  RH  081%=      5-min Rain = 0
KHA3 270604Z 15014KT 23/19 A2983 RMK A01 T02260191  RH  081%=      5-min Rain = 0
KHA3 270605Z 15013KT 23/19 A2983 RMK A01 T02260191  RH  080%=      5-min Rain = 0
KHA3 270606Z 15013KT 23/19 A2983 RMK A01 T02260192  RH  081%=      5-min Rain = 0
KHA3 270607Z 15014KT 23/19 A2983 RMK A01 T02260191  RH  081%=      5-min Rain = 0
KHA3 270608Z 15015KT 23/19 A2983 RMK A01 T02260191  RH  081%=      5-min Rain = 0
KHA3 270609Z 15014KT 23/19 A2983 RMK A01 T02260191  RH  081%=      5-min Rain = 0
KHA3 270610Z 15014KT 23/19 A2983 RMK A01 T02260191  RH  081%=      5-min Rain = 0
KHA3 270611Z 15015KT 23/19 A2983 RMK A01 T02260191  RH  081%=      5-min Rain = 0
KHA3 270612Z 15014KT 23/19 A2983 RMK A01 T02250191  RH  081%=      5-min Rain = 0
KHA3 270613Z 15015KT 23/19 A2983 RMK A01 T02250191  RH  081%=      5-min Rain = 0
KHA3 270614Z 15014KT 23/19 A2983 RMK A01 T02260191  RH  081%=      5-min Rain = 0
KHA3 270615Z 15015KT 23/19 A2983 RMK A01 T02260191  RH  081%=      5-min Rain = 0
KHA3 270616Z 15014KT 23/19 A2983 RMK A01 T02260191  RH  081%=      5-min Rain = 0
KHA3 270617Z 15015KT 23/19 A2983 RMK A01 T02260191  RH  080%=      5-min Rain = 0
KHA3 270618Z 15015KT 23/19 A2983 RMK A01 T02260190  RH  080%=      5-min Rain = 0
KHA3 270619Z 15014KT 23/19 A2983 RMK A01 T02270190  RH  080%=      5-min Rain = 0
KHA3 270620Z 15014KT 23/19 A2983 RMK A01 T02270190  RH  080%=      5-min Rain = 0
KHA3 270621Z 15013KT 23/19 A2983 RMK A01 T02270191  RH  080%=      5-min Rain = 0
KHA3 270622Z 15014KT 23/19 A2983 RMK A01 T02270191  RH  080%=      5-min Rain = 0
KHA3 270623Z 15015KT 23/19 A2983 RMK A01 T02270191  RH  080%=      5-min Rain = 0
KHA3 270624Z 15015KT 23/19 A2983 RMK A01 T02270191  RH  080%=      5-min Rain = 0
KHA3 270625Z 15014KT 23/19 A2983 RMK A01 T02270191  RH  080%=      5-min Rain = 0
KHA3 270626Z 15013KT 23/19 A2983 RMK A01 T02270190  RH  080%=      5-min Rain = 0
KHA3 270627Z 15013KT 23/19 A2983 RMK A01 T02270191  RH  080%=      5-min Rain = 0
KHA3 270628Z 15014KT 23/19 A2983 RMK A01 T02270191  RH  080%=      5-min Rain = 0
KHA3 270629Z 15013KT 23/19 A2983 RMK A01 T02260191  RH  080%=      5-min Rain = 0
KHA3 270630Z 15016KT 23/19 A2983 RMK A01 T02260190  RH  080%=      5-min Rain = 0
KHA3 270631Z 15015KT 23/19 A2983 RMK A01 T02260190  RH  080%=      5-min Rain = 0
KHA3 270632Z 15013KT 23/19 A2983 RMK A01 T02270190  RH  080%=      5-min Rain = 0
KHA3 270633Z 15014KT 23/19 A2983 RMK A01 T02270190  RH  080%=      5-min Rain = 0
KHA3 270634Z 15015KT 23/19 A2983 RMK A01 T02260190  RH  080%=      5-min Rain = 0
KHA3 270635Z 15012KT 23/19 A2983 RMK A01 T02260190  RH  080%=      5-min Rain = 0
KHA3 270636Z 15013G18KT 23/19 A2983 RMK A01 T02260191  RH  080%=      5-min Rain = 0
KHA3 270637Z 15012KT 23/19 A2983 RMK A01 T02260190  RH  080%=      5-min Rain = 0
KHA3 270638Z 15013G18KT 23/19 A2983 RMK A01 T02260190  RH  080%=      5-min Rain = 0
KHA3 270639Z 15013KT 23/19 A2983 RMK A01 T02260191  RH  080%=      5-min Rain = 0
KHA3 270640Z 14013KT 23/19 A2983 RMK A01 T02260190  RH  080%=      5-min Rain = 0
KHA3 270641Z 15013KT 23/19 A2983 RMK A01 T02260190  RH  080%=      5-min Rain = 0
KHA3 270642Z 15013KT 23/19 A2983 RMK A01 T02250190  RH  081%=      5-min Rain = 0
KHA3 270643Z 15012KT 23/19 A2983 RMK A01 T02250190  RH  081%=      5-min Rain = 0
KHA3 270644Z 15014KT 22/19 A2983 RMK A01 T02240190  RH  081%=      5-min Rain = 0
KHA3 270645Z 15015KT 23/19 A2983 RMK A01 T02250190  RH  081%=      5-min Rain = 0
KHA3 270646Z 15015KT 22/19 A2983 RMK A01 T02240190  RH  081%=      5-min Rain = 0
KHA3 270647Z 15013KT 23/19 A2983 RMK A01 T02250190  RH  081%=      5-min Rain = 0
KHA3 270648Z 15012KT 23/19 A2983 RMK A01 T02250190  RH  081%=      5-min Rain = 0
KHA3 270649Z 15013KT 22/19 A2983 RMK A01 T02240190  RH  081%=      5-min Rain = 0
KHA3 270650Z 15013KT 22/19 A2983 RMK A01 T02240190  RH  081%=      5-min Rain = 0
KHA3 270651Z 15014KT 22/19 A2983 RMK A01 T02230190  RH  081%=      5-min Rain = 0
KHA3 270652Z 15012KT 22/19 A2983 RMK A01 T02230190  RH  081%=      5-min Rain = 0
KHA3 270653Z 15012KT 22/19 A2983 RMK A01 T02240190  RH  081%=      5-min Rain = 0
KHA3 270654Z 15013KT 22/19 A2983 RMK A01 T02230190  RH  081%=      5-min Rain = 0
KHA3 270655Z 15014KT 22/19 A2983 RMK A01 T02230190  RH  082%=      5-min Rain = 0
KHA3 270656Z 15015KT 22/19 A2982 RMK A01 T02230190  RH  082%=      5-min Rain = 0
KHA3 270657Z 15014KT 22/19 A2982 RMK A01 T02230190  RH  081%=      5-min Rain = 0
KHA3 270658Z 15012KT 22/19 A2982 RMK A01 T02230189  RH  081%=      5-min Rain = 0
KHA3 270659Z 15013KT 22/19 A2982 RMK A01 T02230190  RH  081%=      5-min Rain = 0
KHA3 270700Z 15013KT 22/19 A2983 RMK A01 T02230190  RH  082%=      5-min Rain = 0
KHA3 270701Z 15014KT 22/19 A2983 RMK A01 T02230190  RH  082%=      5-min Rain = 0
KHA3 270702Z 15013KT 22/19 A2983 RMK A01 T02220190  RH  082%=      5-min Rain = 0
KHA3 270703Z 14012KT 22/19 A2982 RMK A01 T02220190  RH  082%=      5-min Rain = 0
KHA3 270704Z 15012G17KT 22/19 A2982 RMK A01 T02220190  RH  082%=      5-min Rain = 0
KHA3 270705Z 15014KT 22/19 A2982 RMK A01 T02220190  RH  082%=      5-min Rain = 0
KHA3 270706Z 15013KT 22/19 A2983 RMK A01 T02220189  RH  082%=      5-min Rain = 0
KHA3 270707Z 15012KT 22/19 A2983 RMK A01 T02230189  RH  082%=      5-min Rain = 0
KHA3 270708Z 15012KT 22/19 A2983 RMK A01 T02230190  RH  082%=      5-min Rain = 0
KHA3 270709Z 15012KT 22/19 A2983 RMK A01 T02230190  RH  082%=      5-min Rain = 0
KHA3 270710Z 15012KT 22/19 A2983 RMK A01 T02230190  RH  082%=      5-min Rain = 0
KHA3 270711Z 15012KT 22/19 A2983 RMK A01 T02230190  RH  082%=      5-min Rain = 0
KHA3 270712Z 15013KT 22/19 A2983 RMK A01 T02230189  RH  081%=      5-min Rain = 0
KHA3 270713Z 15012KT 22/19 A2983 RMK A01 T02230189  RH  081%=      5-min Rain = 0
KHA3 270714Z 15012KT 22/19 A2983 RMK A01 T02230190  RH  081%=      5-min Rain = 0
KHA3 270715Z 15012KT 22/19 A2983 RMK A01 T02230189  RH  081%=      5-min Rain = 0
KHA3 270716Z 15012KT 22/19 A2983 RMK A01 T02220190  RH  082%=      5-min Rain = 0
KHA3 270717Z 15012KT 22/19 A2983 RMK A01 T02220190  RH  082%=      5-min Rain = 0
KHA3 270718Z 15012KT 22/19 A2983 RMK A01 T02220189  RH  082%=      5-min Rain = 0
KHA3 270719Z 15012KT 22/19 A2983 RMK A01 T02220190  RH  082%=      5-min Rain = 0
KHA3 270720Z 15011KT 22/19 A2982 RMK A01 T02210189  RH  082%=      5-min Rain = 0
KHA3 270721Z 15013KT 22/19 A2982 RMK A01 T02220189  RH  082%=      5-min Rain = 0
KHA3 270722Z 15013KT 22/19 A2982 RMK A01 T02210189  RH  082%=      5-min Rain = 0
KHA3 270723Z 15013G18KT 22/19 A2982 RMK A01 T02210190  RH  082%=      5-min Rain = 0
KHA3 270724Z 15014KT 22/19 A2982 RMK A01 T02210189  RH  082%=      5-min Rain = 0
KHA3 270725Z 15014KT 22/19 A2982 RMK A01 T02210189  RH  082%=      5-min Rain = 0
KHA3 270726Z 15013KT 22/19 A2982 RMK A01 T02210189  RH  082%=      5-min Rain = 0
KHA3 270727Z 15011KT 22/19 A2982 RMK A01 T02210190  RH  082%=      5-min Rain = 0
KHA3 270728Z 15013KT 22/19 A2982 RMK A01 T02210189  RH  082%=      5-min Rain = 0
KHA3 270729Z 15013KT 22/19 A2982 RMK A01 T02200189  RH  082%=      5-min Rain = 0
KHA3 270730Z 16013KT 22/19 A2982 RMK A01 T02210189  RH  082%=      5-min Rain = 0
KHA3 270731Z 15012KT 22/19 A2982 RMK A01 T02210189  RH  082%=      5-min Rain = 0
KHA3 270732Z 16011KT 22/19 A2982 RMK A01 T02210189  RH  082%=      5-min Rain = 0
KHA3 270733Z 16013KT 22/19 A2982 RMK A01 T02210189  RH  082%=      5-min Rain = 0
KHA3 270734Z 16013KT 22/19 A2982 RMK A01 T02210189  RH  082%=      5-min Rain = 0
KHA3 270735Z 16012KT 22/19 A2983 RMK A01 T02220189  RH  082%=      5-min Rain = 0
KHA3 270736Z 15013KT 22/19 A2982 RMK A01 T02220189  RH  082%=      5-min Rain = 0
KHA3 270737Z 15012KT 22/19 A2982 RMK A01 T02220189  RH  082%=      5-min Rain = 0
KHA3 270738Z 16012KT 22/19 A2982 RMK A01 T02210189  RH  082%=      5-min Rain = 0
KHA3 270739Z 15013KT 22/19 A2982 RMK A01 T02210189  RH  082%=      5-min Rain = 0
KHA3 270740Z 15012G17KT 22/19 A2982 RMK A01 T02200189  RH  083%=      5-min Rain = 0
KHA3 270741Z 15014KT 22/19 A2982 RMK A01 T02200189  RH  083%=      5-min Rain = 0
KHA3 270742Z 15013KT 22/19 A2982 RMK A01 T02200189  RH  083%=      5-min Rain = 0
KHA3 270743Z 15013KT 22/19 A2982 RMK A01 T02200189  RH  083%=      5-min Rain = 0
KHA3 270744Z 15014KT 22/19 A2982 RMK A01 T02190189  RH  083%=      5-min Rain = 0
KHA3 270745Z 15012KT 22/19 A2982 RMK A01 T02190189  RH  083%=      5-min Rain = 0
KHA3 270746Z 15013KT 22/19 A2982 RMK A01 T02190189  RH  083%=      5-min Rain = 0
KHA3 270747Z 15014KT 22/19 A2982 RMK A01 T02190189  RH  083%=      5-min Rain = 0
KHA3 270748Z 15013KT 22/19 A2982 RMK A01 T02190189  RH  083%=      5-min Rain = 0
KHA3 270749Z 15013KT 22/19 A2982 RMK A01 T02190189  RH  083%=      5-min Rain = 0
KHA3 270750Z 15013KT 22/19 A2982 RMK A01 T02190189  RH  083%=      5-min Rain = 0
KHA3 270751Z 15013KT 22/19 A2982 RMK A01 T02190189  RH  083%=      5-min Rain = 0
KHA3 270752Z 15012KT 22/19 A2982 RMK A01 T02190189  RH  083%=      5-min Rain = 0
KHA3 270753Z 15013KT 22/19 A2982 RMK A01 T02190189  RH  083%=      5-min Rain = 0
KHA3 270754Z 15012KT 22/19 A2982 RMK A01 T02190189  RH  083%=      5-min Rain = 0
KHA3 270755Z 16013KT 22/19 A2982 RMK A01 T02190189  RH  083%=      5-min Rain = 0
KHA3 270756Z 16014KT 22/19 A2982 RMK A01 T02190189  RH  083%=      5-min Rain = 0
KHA3 270757Z 16013KT 22/19 A2982 RMK A01 T02190189  RH  083%=      5-min Rain = 0
KHA3 270758Z 16011KT 22/19 A2982 RMK A01 T02200189  RH  083%=      5-min Rain = 0
KHA3 270759Z 16011KT 22/19 A2982 RMK A01 T02200189  RH  083%=      5-min Rain = 0
KHA3 270800Z 16009KT 22/19 A2983 RMK A01 T02200189  RH  083%=      5-min Rain = 0
KHA3 270801Z 16009KT 22/19 A2983 RMK A01 T02190189  RH  083%=      5-min Rain = 0
KHA3 270802Z 17009KT 22/19 A2983 RMK A01 T02190189  RH  083%=      5-min Rain = 0
KHA3 270803Z 17008KT 22/19 A2983 RMK A01 T02180189  RH  084%=      5-min Rain = 0
KHA3 270804Z 17008KT 22/19 A2984 RMK A01 T02180189  RH  084%=      5-min Rain = 0
KHA3 270805Z 18007KT 22/19 A2984 RMK A01 T02180189  RH  084%=      5-min Rain = 0
KHA3 270806Z 19008KT 22/19 A2985 RMK A01 T02180189  RH  084%=      5-min Rain = 0
KHA3 270807Z 20007KT 22/19 A2985 RMK A01 T02180189  RH  084%=      5-min Rain = 0
KHA3 270808Z 22007KT 22/19 A2986 RMK A01 T02180190  RH  084%=      5-min Rain = 0
KHA3 270809Z 23007KT 22/19 A2986 RMK A01 T02180189  RH  084%=      5-min Rain = 0
KHA3 270810Z 23005KT 22/19 A2986 RMK A01 T02180190  RH  084%=      5-min Rain = 0
KHA3 270811Z 23004KT 22/19 A2986 RMK A01 T02170189  RH  084%=      5-min Rain = 0
KHA3 270812Z 22004KT 22/19 A2986 RMK A01 T02170190  RH  084%=      5-min Rain = 0
KHA3 270813Z 19004KT 22/19 A2985 RMK A01 T02160189  RH  085%=      5-min Rain = 0
KHA3 270814Z 17005KT 22/19 A2985 RMK A01 T02150189  RH  085%=      5-min Rain = 0
KHA3 270815Z 16006KT 21/19 A2985 RMK A01 T02140189  RH  086%=      5-min Rain = 0
KHA3 270816Z 15007KT 21/19 A2984 RMK A01 T02130189  RH  086%=      5-min Rain = 0
KHA3 270817Z 16006KT 21/19 A2985 RMK A01 T02120188  RH  086%=      5-min Rain = 0
KHA3 270818Z 15005KT 21/19 A2985 RMK A01 T02120189  RH  087%=      5-min Rain = 0
KHA3 270819Z 16004KT 21/19 A2985 RMK A01 T02110188  RH  087%=      5-min Rain = 0
KHA3 270820Z 17004KT 21/19 A2985 RMK A01 T02110188  RH  087%=      5-min Rain = 0
KHA3 270821Z 18002KT 21/19 A2986 RMK A01 T02110188  RH  087%=      5-min Rain = 0
KHA3 270822Z 20002KT 21/19 A2986 RMK A01 T02110188  RH  087%=      5-min Rain = 0
KHA3 270823Z 24001KT 21/19 A2986 RMK A01 T02110188  RH  087%=      5-min Rain = 0
KHA3 270824Z 25002KT 21/19 A2986 RMK A01 T02110188  RH  087%=      5-min Rain = 0
KHA3 270825Z 26002KT 21/19 A2986 RMK A01 T02110188  RH  087%=      5-min Rain = 0
KHA3 270826Z 28002KT 21/19 A2986 RMK A01 T02110188  RH  087%=      5-min Rain = 0
KHA3 270827Z 25001KT 21/19 A2986 RMK A01 T02110189  RH  087%=      5-min Rain = 0
KHA3 270828Z 00000KT 21/19 A2986 RMK A01 T02100189  RH  087%=      5-min Rain = 0
KHA3 270829Z 09000KT 21/19 A2985 RMK A01 T02100189  RH  088%=      5-min Rain = 0
KHA3 270830Z 12001KT 21/19 A2985 RMK A01 T02100189  RH  088%=      5-min Rain = 0
KHA3 270831Z 13002KT 21/19 A2985 RMK A01 T02100189  RH  088%=      5-min Rain = 0
KHA3 270832Z 13002KT 21/19 A2985 RMK A01 T02100189  RH  088%=      5-min Rain = 0
KHA3 270833Z 13002KT 21/19 A2985 RMK A01 T02090189  RH  088%=      5-min Rain = 0
KHA3 270834Z 14002KT 21/19 A2985 RMK A01 T02090189  RH  088%=      5-min Rain = 0
KHA3 270835Z 16002KT 21/19 A2985 RMK A01 T02090189  RH  088%=      5-min Rain = 0
KHA3 270836Z 17002KT 21/19 A2985 RMK A01 T02090188  RH  088%=      5-min Rain = 0
KHA3 270837Z 18002KT 21/19 A2985 RMK A01 T02100188  RH  087%=      5-min Rain = 0
KHA3 270838Z 20002KT 21/19 A2986 RMK A01 T02100188  RH  087%=      5-min Rain = 0
KHA3 270839Z 20002KT 21/19 A2986 RMK A01 T02110189  RH  087%=      5-min Rain = 0
KHA3 270840Z 21001KT 21/19 A2986 RMK A01 T02110189  RH  087%=      5-min Rain = 0
KHA3 270841Z 19002KT 21/19 A2986 RMK A01 T02110189  RH  087%=      5-min Rain = 0
KHA3 270842Z 20002KT 21/19 A2986 RMK A01 T02110189  RH  087%=      5-min Rain = 0
KHA3 270843Z 19002KT 21/19 A2985 RMK A01 T02110190  RH  088%=      5-min Rain = 0
KHA3 270844Z 17003KT 21/19 A2985 RMK A01 T02110190  RH  088%=      5-min Rain = 0
KHA3 270845Z 16004KT 21/19 A2985 RMK A01 T02110191  RH  088%=      5-min Rain = 0
KHA3 270846Z 16005KT 21/19 A2985 RMK A01 T02110190  RH  088%=      5-min Rain = 0
KHA3 270847Z 16006KT 21/19 A2985 RMK A01 T02100190  RH  088%=      5-min Rain = 0
KHA3 270848Z 16007KT 21/19 A2985 RMK A01 T02100190  RH  088%=      5-min Rain = 0
KHA3 270849Z 16007KT 21/19 A2984 RMK A01 T02090190  RH  089%=      5-min Rain = 0
KHA3 270850Z 16007KT 21/19 A2984 RMK A01 T02090190  RH  089%=      5-min Rain = 0
KHA3 270851Z 16008KT 21/19 A2984 RMK A01 T02090190  RH  089%=      5-min Rain = 0
KHA3 270852Z 16009KT 21/19 A2984 RMK A01 T02090190  RH  089%=      5-min Rain = 0
KHA3 270853Z 16009KT 21/19 A2984 RMK A01 T02090190  RH  089%=      5-min Rain = 0
KHA3 270854Z 16009KT 21/19 A2984 RMK A01 T02080190  RH  089%=      5-min Rain = 0
KHA3 270855Z 16008KT 21/19 A2984 RMK A01 T02080190  RH  089%=      5-min Rain = 0
KHA3 270856Z 16008KT 21/19 A2984 RMK A01 T02080190  RH  089%=      5-min Rain = 0
KHA3 270857Z 16008KT 21/19 A2984 RMK A01 T02080190  RH  089%=      5-min Rain = 0
KHA3 270858Z 15008KT 21/19 A2984 RMK A01 T02080190  RH  089%=      5-min Rain = 0
KHA3 270859Z 15008KT 21/19 A2984 RMK A01 T02080190  RH  089%=      5-min Rain = 0
KHA3 270900Z 16008KT 21/19 A2984 RMK A01 T02080189  RH  089%=      5-min Rain = 0
KHA3 270901Z 16008KT 21/19 A2984 RMK A01 T02080189  RH  089%=      5-min Rain = 0
KHA3 270902Z 15007KT 21/19 A2984 RMK A01 T02080189  RH  089%=      5-min Rain = 0
KHA3 270903Z 16007KT 21/19 A2984 RMK A01 T02090189  RH  089%=      5-min Rain = 0
KHA3 270904Z 16007KT 21/19 A2984 RMK A01 T02090189  RH  089%=      5-min Rain = 0
KHA3 270905Z 16007KT 21/19 A2984 RMK A01 T02080189  RH  089%=      5-min Rain = 0
KHA3 270906Z 16008KT 21/19 A2984 RMK A01 T02080189  RH  089%=      5-min Rain = 0
KHA3 270907Z 16007KT 21/19 A2984 RMK A01 T02080189  RH  089%=      5-min Rain = 0
KHA3 270908Z 16007KT 21/19 A2984 RMK A01 T02090189  RH  089%=      5-min Rain = 0
KHA3 270909Z 16007KT 21/19 A2984 RMK A01 T02080189  RH  089%=      5-min Rain = 0
KHA3 270910Z 16007KT 21/19 A2984 RMK A01 T02080189  RH  089%=      5-min Rain = 0
KHA3 270911Z 15007KT 21/19 A2984 RMK A01 T02080189  RH  089%=      5-min Rain = 0
KHA3 270912Z 15006KT 21/19 A2984 RMK A01 T02080190  RH  089%=      5-min Rain = 0
KHA3 270913Z 15006KT 21/19 A2984 RMK A01 T02090190  RH  089%=      5-min Rain = 0
KHA3 270914Z 15006KT 21/19 A2984 RMK A01 T02080190  RH  089%=      5-min Rain = 0
KHA3 270915Z 15006KT 21/19 A2984 RMK A01 T02080189  RH  089%=      5-min Rain = 0
KHA3 270916Z 15006KT 21/19 A2984 RMK A01 T02080189  RH  089%=      5-min Rain = 0
KHA3 270917Z 15007KT 21/19 A2984 RMK A01 T02080190  RH  089%=      5-min Rain = 0
KHA3 270918Z 15006KT 21/19 A2984 RMK A01 T02070190  RH  090%=      5-min Rain = 0
KHA3 270919Z 14006KT 21/19 A2984 RMK A01 T02070190  RH  090%=      5-min Rain = 0
KHA3 270920Z 14007KT 21/19 A2984 RMK A01 T02070190  RH  090%=      5-min Rain = 0
KHA3 270921Z 14007KT 21/19 A2984 RMK A01 T02070190  RH  090%=      5-min Rain = 0
KHA3 270922Z 14007KT 21/19 A2984 RMK A01 T02070190  RH  090%=      5-min Rain = 0
KHA3 270923Z 14007KT 21/19 A2984 RMK A01 T02070190  RH  090%=      5-min Rain = 0
KHA3 270924Z 14006KT 21/19 A2984 RMK A01 T02070190  RH  090%=      5-min Rain = 0
KHA3 270925Z 15006KT 21/19 A2984 RMK A01 T02070190  RH  090%=      5-min Rain = 0
KHA3 270926Z 14006KT 21/19 A2984 RMK A01 T02080190  RH  090%=      5-min Rain = 0
KHA3 270927Z 14006KT 21/19 A2984 RMK A01 T02080190  RH  089%=      5-min Rain = 0
KHA3 270928Z 14007KT 21/19 A2984 RMK A01 T02080190  RH  089%=      5-min Rain = 0
KHA3 270929Z 14005KT 21/19 A2984 RMK A01 T02080190  RH  089%=      5-min Rain = 0
KHA3 270930Z 14006KT 21/19 A2984 RMK A01 T02080190  RH  089%=      5-min Rain = 0
KHA3 270931Z 14005KT 21/19 A2984 RMK A01 T02090190  RH  089%=      5-min Rain = 0
KHA3 270932Z 14006KT 21/19 A2984 RMK A01 T02090190  RH  089%=      5-min Rain = 0
KHA3 270933Z 14006KT 21/19 A2984 RMK A01 T02090191  RH  089%=      5-min Rain = 0
KHA3 270934Z 14006KT 21/19 A2984 RMK A01 T02090191  RH  089%=      5-min Rain = 0
KHA3 270935Z 13006KT 21/19 A2984 RMK A01 T02090190  RH  089%=      5-min Rain = 0
KHA3 270936Z 13006KT 21/19 A2984 RMK A01 T02090190  RH  089%=      5-min Rain = 0
KHA3 270937Z 14006KT 21/19 A2984 RMK A01 T02090190  RH  089%=      5-min Rain = 0
KHA3 270938Z 14007KT 21/19 A2984 RMK A01 T02090191  RH  089%=      5-min Rain = 0
KHA3 270939Z 14007KT 21/19 A2984 RMK A01 T02090191  RH  089%=      5-min Rain = 0
KHA3 270940Z 14006KT 21/19 A2984 RMK A01 T02100190  RH  089%=      5-min Rain = 0
KHA3 270941Z 14007KT 21/19 A2984 RMK A01 T02100191  RH  089%=      5-min Rain = 0
KHA3 270942Z 14006KT 21/19 A2984 RMK A01 T02100191  RH  088%=      5-min Rain = 0
KHA3 270943Z 14007KT 21/19 A2984 RMK A01 T02100191  RH  088%=      5-min Rain = 0
KHA3 270944Z 14007KT 21/19 A2984 RMK A01 T02110191  RH  088%=      5-min Rain = 0
KHA3 270945Z 14007KT 21/19 A2984 RMK A01 T02110191  RH  088%=      5-min Rain = 0
KHA3 270946Z 14007KT 21/19 A2984 RMK A01 T02110191  RH  088%=      5-min Rain = 0
KHA3 270947Z 15006KT 21/19 A2984 RMK A01 T02110191  RH  089%=      5-min Rain = 0
KHA3 270948Z 14007KT 21/19 A2984 RMK A01 T02100191  RH  089%=      5-min Rain = 0
KHA3 270949Z 15008KT 21/19 A2984 RMK A01 T02100191  RH  089%=      5-min Rain = 0
KHA3 270950Z 15008KT 21/19 A2984 RMK A01 T02090191  RH  089%=      5-min Rain = 0
KHA3 270951Z 15008KT 21/19 A2984 RMK A01 T02090191  RH  089%=      5-min Rain = 0
KHA3 270952Z 14008KT 21/19 A2984 RMK A01 T02090191  RH  089%=      5-min Rain = 0
KHA3 270953Z 15008KT 21/19 A2984 RMK A01 T02090191  RH  089%=      5-min Rain = 0
KHA3 270954Z 14009KT 21/19 A2984 RMK A01 T02090191  RH  089%=      5-min Rain = 0
KHA3 270955Z 15009KT 21/19 A2984 RMK A01 T02090191  RH  089%=      5-min Rain = 0
KHA3 270956Z 15009KT 21/19 A2984 RMK A01 T02100191  RH  089%=      5-min Rain = 0
KHA3 270957Z 15009KT 21/19 A2984 RMK A01 T02100192  RH  089%=      5-min Rain = 0
KHA3 270958Z 15008KT 21/19 A2984 RMK A01 T02100191  RH  089%=      5-min Rain = 0
KHA3 270959Z 15008KT 21/19 A2984 RMK A01 T02100192  RH  089%=      5-min Rain = 0
KHA3 271000Z 15009KT 21/19 A2984 RMK A01 T02110192  RH  089%=      5-min Rain = 0
KHA3 271001Z 15009KT 21/19 A2984 RMK A01 T02110192  RH  089%=      5-min Rain = 0
KHA3 271002Z 15008KT 21/19 A2984 RMK A01 T02110192  RH  089%=      5-min Rain = 0
KHA3 271003Z 15008KT 21/19 A2984 RMK A01 T02110192  RH  089%=      5-min Rain = 0
KHA3 271004Z 15008KT 21/19 A2984 RMK A01 T02110192  RH  089%=      5-min Rain = 0
KHA3 271005Z 15009KT 21/19 A2984 RMK A01 T02110192  RH  089%=      5-min Rain = 0
KHA3 271006Z 15009KT 21/19 A2984 RMK A01 T02110192  RH  089%=      5-min Rain = 0
KHA3 271007Z 15009KT 21/19 A2984 RMK A01 T02110192  RH  089%=      5-min Rain = 0
KHA3 271008Z 15010KT 21/19 A2984 RMK A01 T02120192  RH  088%=      5-min Rain = 0
KHA3 271009Z 15009KT 21/19 A2984 RMK A01 T02120192  RH  088%=      5-min Rain = 0
KHA3 271010Z 15010KT 21/19 A2984 RMK A01 T02120192  RH  088%=      5-min Rain = 0
KHA3 271011Z 16010KT 21/19 A2984 RMK A01 T02130192  RH  088%=      5-min Rain = 0
KHA3 271012Z 15010KT 21/19 A2984 RMK A01 T02120192  RH  088%=      5-min Rain = 0
KHA3 271013Z 15010KT 21/19 A2984 RMK A01 T02130192  RH  088%=      5-min Rain = 0
KHA3 271014Z 16010KT 21/19 A2984 RMK A01 T02130192  RH  088%=      5-min Rain = 0
KHA3 271015Z 15011KT 21/19 A2983 RMK A01 T02130192  RH  088%=      5-min Rain = 0
KHA3 271016Z 15010KT 21/19 A2983 RMK A01 T02130192  RH  088%=      5-min Rain = 0
KHA3 271017Z 15011KT 21/19 A2983 RMK A01 T02130192  RH  088%=      5-min Rain = 0
KHA3 271018Z 15011KT 21/19 A2983 RMK A01 T02140192  RH  087%=      5-min Rain = 0
KHA3 271019Z 16011KT 21/19 A2983 RMK A01 T02130191  RH  087%=      5-min Rain = 0
KHA3 271020Z 16010KT 21/19 A2983 RMK A01 T02140192  RH  087%=      5-min Rain = 0
KHA3 271021Z 16011KT 21/19 A2983 RMK A01 T02140192  RH  087%=      5-min Rain = 0
KHA3 271022Z 16010KT 21/19 A2983 RMK A01 T02140191  RH  087%=      5-min Rain = 0
KHA3 271023Z 16010KT 21/19 A2983 RMK A01 T02140191  RH  087%=      5-min Rain = 0
KHA3 271024Z 16011KT 21/19 A2983 RMK A01 T02140192  RH  087%=      5-min Rain = 0
KHA3 271025Z 16011KT 21/19 A2983 RMK A01 T02140192  RH  087%=      5-min Rain = 0
KHA3 271026Z 16011KT 21/19 A2983 RMK A01 T02140192  RH  087%=      5-min Rain = 0
KHA3 271027Z 16010KT 21/19 A2983 RMK A01 T02140192  RH  087%=      5-min Rain = 0
KHA3 271028Z 16011KT 21/19 A2983 RMK A01 T02130191  RH  087%=      5-min Rain = 0
KHA3 271029Z 16011KT 21/19 A2983 RMK A01 T02130191  RH  087%=      5-min Rain = 0
KHA3 271030Z 16011KT 21/19 A2983 RMK A01 T02140192  RH  087%=      5-min Rain = 0
KHA3 271031Z 16011KT 21/19 A2983 RMK A01 T02140191  RH  087%=      5-min Rain = 0
KHA3 271032Z 16010KT 21/19 A2983 RMK A01 T02140192  RH  087%=      5-min Rain = 0
KHA3 271033Z 16010KT 21/19 A2983 RMK A01 T02140191  RH  087%=      5-min Rain = 0
KHA3 271034Z 16011KT 21/19 A2983 RMK A01 T02140192  RH  087%=      5-min Rain = 0
KHA3 271035Z 16011KT 21/19 A2983 RMK A01 T02140191  RH  087%=      5-min Rain = 0
KHA3 271036Z 15012KT 21/19 A2983 RMK A01 T02140192  RH  087%=      5-min Rain = 0
KHA3 271037Z 16011KT 22/19 A2983 RMK A01 T02150191  RH  087%=      5-min Rain = 0
KHA3 271038Z 16010KT 22/19 A2983 RMK A01 T02150192  RH  087%=      5-min Rain = 0
KHA3 271039Z 16011KT 22/19 A2983 RMK A01 T02150192  RH  087%=      5-min Rain = 0
KHA3 271040Z 15010KT 22/19 A2983 RMK A01 T02150192  RH  087%=      5-min Rain = 0
KHA3 271041Z 16010KT 22/19 A2983 RMK A01 T02150192  RH  087%=      5-min Rain = 0
KHA3 271042Z 16011KT 22/19 A2983 RMK A01 T02150192  RH  087%=      5-min Rain = 0
KHA3 271043Z 16010KT 21/19 A2983 RMK A01 T02140192  RH  087%=      5-min Rain = 0
KHA3 271044Z 16011KT 22/19 A2983 RMK A01 T02150192  RH  087%=      5-min Rain = 0
KHA3 271045Z 16012KT 22/19 A2983 RMK A01 T02150192  RH  087%=      5-min Rain = 0
KHA3 271046Z 16011KT 22/19 A2983 RMK A01 T02150192  RH  087%=      5-min Rain = 0
KHA3 271047Z 15011KT 22/19 A2983 RMK A01 T02150192  RH  087%=      5-min Rain = 0
KHA3 271048Z 16011KT 22/19 A2983 RMK A01 T02150193  RH  087%=      5-min Rain = 0
KHA3 271049Z 15012KT 22/19 A2983 RMK A01 T02150192  RH  087%=      5-min Rain = 0
KHA3 271050Z 16011KT 22/19 A2983 RMK A01 T02150192  RH  087%=      5-min Rain = 0
KHA3 271051Z 15010KT 22/19 A2983 RMK A01 T02150192  RH  087%=      5-min Rain = 0
KHA3 271052Z 15011KT 22/19 A2983 RMK A01 T02150192  RH  087%=      5-min Rain = 0
KHA3 271053Z 16011KT 22/19 A2983 RMK A01 T02150192  RH  087%=      5-min Rain = 0
KHA3 271054Z 15012KT 22/19 A2983 RMK A01 T02150192  RH  087%=      5-min Rain = 0
KHA3 271055Z 15012KT 22/19 A2983 RMK A01 T02150192  RH  087%=      5-min Rain = 0
KHA3 271056Z 15011KT 22/19 A2983 RMK A01 T02150192  RH  087%=      5-min Rain = 0
KHA3 271057Z 15011KT 22/19 A2983 RMK A01 T02150192  RH  087%=      5-min Rain = 0
KHA3 271058Z 15011KT 22/19 A2983 RMK A01 T02150193  RH  087%=      5-min Rain = 0
KHA3 271059Z 16011KT 22/19 A2983 RMK A01 T02150193  RH  087%=      5-min Rain = 0
KHA3 271100Z 16011KT 22/19 A2983 RMK A01 T02150193  RH  087%=      5-min Rain = 0
KHA3 271101Z 16012KT 22/19 A2983 RMK A01 T02150193  RH  087%=      5-min Rain = 0
KHA3 271102Z 16011KT 22/19 A2983 RMK A01 T02150193  RH  087%=      5-min Rain = 0
KHA3 271103Z 15011KT 22/19 A2983 RMK A01 T02150193  RH  087%=      5-min Rain = 0
KHA3 271104Z 16013KT 22/19 A2983 RMK A01 T02150193  RH  087%=      5-min Rain = 0
KHA3 271105Z 16012KT 22/19 A2983 RMK A01 T02150193  RH  087%=      5-min Rain = 0
KHA3 271106Z 16012KT 22/19 A2983 RMK A01 T02150193  RH  087%=      5-min Rain = 0
KHA3 271107Z 15013KT 22/19 A2983 RMK A01 T02150193  RH  087%=      5-min Rain = 0
KHA3 271108Z 16012KT 22/19 A2983 RMK A01 T02150193  RH  087%=      5-min Rain = 0
KHA3 271109Z 15013KT 22/19 A2983 RMK A01 T02150193  RH  087%=      5-min Rain = 0
KHA3 271110Z 16013KT 22/19 A2983 RMK A01 T02160193  RH  087%=      5-min Rain = 0
KHA3 271111Z 16012KT 22/19 A2983 RMK A01 T02160193  RH  087%=      5-min Rain = 0
KHA3 271112Z 16011KT 22/19 A2983 RMK A01 T02160193  RH  087%=      5-min Rain = 0
KHA3 271113Z 16012KT 22/19 A2983 RMK A01 T02160193  RH  087%=      5-min Rain = 0
KHA3 271114Z 16012KT 22/19 A2983 RMK A01 T02160193  RH  087%=      5-min Rain = 0
KHA3 271115Z 16013KT 22/19 A2983 RMK A01 T02160193  RH  087%=      5-min Rain = 0
KHA3 271116Z 16014KT 22/19 A2983 RMK A01 T02150193  RH  087%=      5-min Rain = 0
KHA3 271117Z 16012KT 22/19 A2983 RMK A01 T02150193  RH  087%=      5-min Rain = 0
KHA3 271118Z 16013KT 22/19 A2983 RMK A01 T02150193  RH  087%=      5-min Rain = 0
KHA3 271119Z 16012G17KT 22/19 A2983 RMK A01 T02160193  RH  087%=      5-min Rain = 0
KHA3 271120Z 16012KT 22/19 A2983 RMK A01 T02160193  RH  087%=      5-min Rain = 0
KHA3 271121Z 16013KT 22/19 A2983 RMK A01 T02160193  RH  087%=      5-min Rain = 0
KHA3 271122Z 16012KT 22/19 A2983 RMK A01 T02150193  RH  087%=      5-min Rain = 0
KHA3 271123Z 16014KT 22/19 A2983 RMK A01 T02150194  RH  087%=      5-min Rain = 0
KHA3 271124Z 16012KT 22/19 A2983 RMK A01 T02160194  RH  087%=      5-min Rain = 0
KHA3 271125Z 16011KT 22/19 A2983 RMK A01 T02150193  RH  087%=      5-min Rain = 0
KHA3 271126Z 16012KT 22/19 A2983 RMK A01 T02150194  RH  088%=      5-min Rain = 0
KHA3 271127Z 16014KT 21/19 A2983 RMK A01 T02140193  RH  088%=      5-min Rain = 0
KHA3 271128Z 16014KT 22/19 A2983 RMK A01 T02150193  RH  087%=      5-min Rain = 0
KHA3 271129Z 16013KT 22/19 A2983 RMK A01 T02150193  RH  087%=      5-min Rain = 0
KHA3 271130Z 16013KT 22/19 A2983 RMK A01 T02150193  RH  087%=      5-min Rain = 0
KHA3 271131Z 16014KT 22/19 A2983 RMK A01 T02150193  RH  087%=      5-min Rain = 0
KHA3 271132Z 16014KT 22/19 A2983 RMK A01 T02150193  RH  087%=      5-min Rain = 0
KHA3 271133Z 16014KT 22/19 A2983 RMK A01 T02150193  RH  087%=      5-min Rain = 0
KHA3 271134Z 16014KT 22/19 A2983 RMK A01 T02150193  RH  087%=      5-min Rain = 0
KHA3 271135Z 16015KT 22/19 A2983 RMK A01 T02150193  RH  087%=      5-min Rain = 0
KHA3 271136Z 16015KT 22/19 A2982 RMK A01 T02150193  RH  087%=      5-min Rain = 0
KHA3 271137Z 16014KT 22/19 A2982 RMK A01 T02150193  RH  087%=      5-min Rain = 0
KHA3 271138Z 16014KT 22/19 A2982 RMK A01 T02150193  RH  087%=      5-min Rain = 0
KHA3 271139Z 16014KT 22/19 A2982 RMK A01 T02150193  RH  088%=      5-min Rain = 0
KHA3 271140Z 16014KT 21/19 A2982 RMK A01 T02140193  RH  088%=      5-min Rain = 0
KHA3 271141Z 16014KT 21/19 A2982 RMK A01 T02140194  RH  088%=      5-min Rain = 0
KHA3 271142Z 16014KT 21/19 A2982 RMK A01 T02140193  RH  088%=      5-min Rain = 0
KHA3 271143Z 16013KT 21/19 A2982 RMK A01 T02140193  RH  088%=      5-min Rain = 0
KHA3 271144Z 16013KT 21/19 A2982 RMK A01 T02140194  RH  088%=      5-min Rain = 0
KHA3 271145Z 16014KT 21/19 A2982 RMK A01 T02130193  RH  088%=      5-min Rain = 0
KHA3 271146Z 16012KT 21/19 A2982 RMK A01 T02130193  RH  088%=      5-min Rain = 0
KHA3 271147Z 16014KT 21/19 A2983 RMK A01 T02130193  RH  089%=      5-min Rain = 0
KHA3 271148Z 16012KT 21/19 A2983 RMK A01 T02130194  RH  089%=      5-min Rain = 0
KHA3 271149Z 16013G18KT 21/19 A2983 RMK A01 T02130194  RH  089%=      5-min Rain = 0
KHA3 271150Z 16013KT 21/19 A2983 RMK A01 T02130194  RH  089%=      5-min Rain = 0
KHA3 271151Z 16014KT 21/19 A2983 RMK A01 T02120193  RH  089%=      5-min Rain = 0
KHA3 271152Z 16014KT 21/19 A2983 RMK A01 T02130193  RH  089%=      5-min Rain = 0
KHA3 271153Z 16013KT 21/19 A2983 RMK A01 T02130193  RH  088%=      5-min Rain = 0
KHA3 271154Z 16012KT 21/19 A2983 RMK A01 T02130194  RH  088%=      5-min Rain = 0
KHA3 271155Z 16012KT 21/19 A2983 RMK A01 T02140194  RH  089%=      5-min Rain = 0
KHA3 271156Z 16013KT 21/19 A2983 RMK A01 T02130194  RH  089%=      5-min Rain = 0
KHA3 271157Z 16013KT 21/19 A2983 RMK A01 T02130194  RH  089%=      5-min Rain = 0
KHA3 271158Z 16013KT 21/19 A2983 RMK A01 T02140194  RH  088%=      5-min Rain = 0
KHA3 271159Z 16013KT 21/19 A2983 RMK A01 T02140194  RH  088%=      5-min Rain = 0
KHA3 271200Z 17014KT 21/19 A2983 RMK A01 T02130193  RH  088%=      5-min Rain = 0
KHA3 271201Z 16013KT 21/19 A2983 RMK A01 T02130193  RH  088%=      5-min Rain = 0
KHA3 271202Z 16013KT 21/19 A2983 RMK A01 T02130193  RH  088%=      5-min Rain = 0
KHA3 271203Z 16012KT 21/19 A2983 RMK A01 T02130194  RH  088%=      5-min Rain = 0
KHA3 271204Z 16014KT 21/19 A2983 RMK A01 T02130194  RH  089%=      5-min Rain = 0
KHA3 271205Z 16013KT 21/19 A2983 RMK A01 T02140194  RH  089%=      5-min Rain = 0
KHA3 271206Z 16013KT 21/19 A2983 RMK A01 T02130194  RH  089%=      5-min Rain = 0
KHA3 271207Z 16013KT 21/19 A2983 RMK A01 T02140194  RH  089%=      5-min Rain = 0
KHA3 271208Z 16012KT 21/19 A2983 RMK A01 T02130194  RH  089%=      5-min Rain = 0
KHA3 271209Z 16014KT 21/19 A2983 RMK A01 T02130194  RH  089%=      5-min Rain = 0
KHA3 271210Z 16013KT 21/19 A2983 RMK A01 T02130194  RH  089%=      5-min Rain = 0
KHA3 271211Z 16014KT 21/19 A2983 RMK A01 T02140194  RH  089%=      5-min Rain = 0
KHA3 271212Z 16012KT 21/19 A2983 RMK A01 T02140194  RH  089%=      5-min Rain = 0
KHA3 271213Z 16012KT 21/19 A2983 RMK A01 T02130194  RH  089%=      5-min Rain = 0
KHA3 271214Z 16013KT 21/19 A2983 RMK A01 T02130194  RH  089%=      5-min Rain = 0
KHA3 271215Z 16014KT 21/19 A2983 RMK A01 T02130194  RH  089%=      5-min Rain = 0
KHA3 271216Z 16013KT 21/19 A2983 RMK A01 T02130194  RH  089%=      5-min Rain = 0
KHA3 271217Z 16012KT 21/19 A2983 RMK A01 T02140194  RH  089%=      5-min Rain = 0
KHA3 271218Z 16011KT 21/19 A2983 RMK A01 T02140194  RH  089%=      5-min Rain = 0
KHA3 271219Z 16011KT 21/19 A2983 RMK A01 T02140194  RH  089%=      5-min Rain = 0
KHA3 271220Z 16011KT 21/20 A2983 RMK A01 T02140195  RH  089%=      5-min Rain = 0
KHA3 271221Z 16013KT 21/20 A2983 RMK A01 T02140195  RH  089%=      5-min Rain = 0
KHA3 271222Z 16011KT 21/20 A2983 RMK A01 T02140195  RH  089%=      5-min Rain = 0
KHA3 271223Z 16012KT 21/20 A2983 RMK A01 T02140195  RH  089%=      5-min Rain = 0
KHA3 271224Z 16011KT 22/20 A2983 RMK A01 T02150195  RH  088%=      5-min Rain = 0
KHA3 271225Z 16012KT 22/20 A2983 RMK A01 T02150195  RH  088%=      5-min Rain = 0
KHA3 271226Z 16013KT 22/20 A2983 RMK A01 T02150195  RH  088%=      5-min Rain = 0
KHA3 271227Z 16012KT 22/20 A2983 RMK A01 T02150195  RH  088%=      5-min Rain = 0
KHA3 271228Z 16011KT 22/20 A2983 RMK A01 T02160196  RH  088%=      5-min Rain = 0
KHA3 271229Z 16011KT 22/20 A2983 RMK A01 T02160196  RH  088%=      5-min Rain = 0
KHA3 271230Z 17014KT 22/20 A2983 RMK A01 T02170196  RH  088%=      5-min Rain = 0
KHA3 271231Z 17012KT 22/20 A2983 RMK A01 T02170196  RH  088%=      5-min Rain = 0
KHA3 271232Z 17012KT 22/20 A2983 RMK A01 T02170196  RH  088%=      5-min Rain = 0
KHA3 271233Z 17014KT 22/20 A2983 RMK A01 T02170196  RH  088%=      5-min Rain = 0
KHA3 271234Z 16012KT 22/20 A2983 RMK A01 T02180196  RH  088%=      5-min Rain = 0
KHA3 271235Z 17011KT 22/20 A2983 RMK A01 T02180196  RH  087%=      5-min Rain = 0
KHA3 271236Z 16014KT 22/20 A2983 RMK A01 T02190197  RH  087%=      5-min Rain = 0
KHA3 271237Z 16012KT 22/20 A2983 RMK A01 T02190197  RH  087%=      5-min Rain = 0
KHA3 271238Z 17013G18KT 22/20 A2983 RMK A01 T02190197  RH  087%=      5-min Rain = 0
KHA3 271239Z 17012KT 22/20 A2984 RMK A01 T02200197  RH  087%=      5-min Rain = 0
KHA3 271240Z 16013G18KT 22/20 A2984 RMK A01 T02200197  RH  087%=      5-min Rain = 0
KHA3 271241Z 16013G18KT 22/20 A2984 RMK A01 T02200197  RH  087%=      5-min Rain = 0
KHA3 271242Z 16013KT 22/20 A2984 RMK A01 T02210197  RH  086%=      5-min Rain = 0
KHA3 271243Z 16012KT 22/20 A2984 RMK A01 T02210197  RH  086%=      5-min Rain = 0
KHA3 271244Z 16013KT 22/20 A2984 RMK A01 T02210198  RH  086%=      5-min Rain = 0
KHA3 271245Z 16012KT 22/20 A2984 RMK A01 T02210197  RH  086%=      5-min Rain = 0
KHA3 271246Z 17013KT 22/20 A2984 RMK A01 T02210197  RH  086%=      5-min Rain = 0
KHA3 271247Z 16013KT 22/20 A2984 RMK A01 T02210198  RH  086%=      5-min Rain = 0
KHA3 271248Z 16012KT 22/20 A2984 RMK A01 T02220198  RH  086%=      5-min Rain = 0
KHA3 271249Z 17011KT 22/20 A2984 RMK A01 T02220198  RH  086%=      5-min Rain = 0
KHA3 271250Z 16010KT 22/20 A2984 RMK A01 T02220198  RH  087%=      5-min Rain = 0
KHA3 271251Z 16012KT 22/20 A2984 RMK A01 T02220198  RH  086%=      5-min Rain = 0
KHA3 271252Z 16010KT 22/20 A2984 RMK A01 T02220198  RH  086%=      5-min Rain = 0
KHA3 271253Z 16010KT 22/20 A2984 RMK A01 T02220198  RH  086%=      5-min Rain = 0
KHA3 271254Z 16011G16KT 22/20 A2984 RMK A01 T02220199  RH  086%=      5-min Rain = 0
KHA3 271255Z 15011KT 22/20 A2984 RMK A01 T02220199  RH  086%=      5-min Rain = 0
KHA3 271256Z 16010KT 22/20 A2984 RMK A01 T02230199  RH  086%=      5-min Rain = 0
KHA3 271257Z 16010KT 22/20 A2984 RMK A01 T02230199  RH  086%=      5-min Rain = 0
KHA3 271258Z 16012KT 22/20 A2984 RMK A01 T02230199  RH  086%=      5-min Rain = 0
KHA3 271259Z 16013KT 22/20 A2984 RMK A01 T02230198  RH  086%=      5-min Rain = 0
KHA3 271300Z 15012KT 22/20 A2984 RMK A01 T02240198  RH  086%=      5-min Rain = 0
KHA3 271301Z 16012KT 22/20 A2984 RMK A01 T02240198  RH  085%=      5-min Rain = 0
KHA3 271302Z 16011KT 22/20 A2985 RMK A01 T02240199  RH  085%=      5-min Rain = 0
KHA3 271303Z 16011KT 22/20 A2985 RMK A01 T02240199  RH  085%=      5-min Rain = 0
KHA3 271304Z 16012KT 23/20 A2985 RMK A01 T02250199  RH  086%=      5-min Rain = 0
KHA3 271305Z 15013KT 22/20 A2985 RMK A01 T02240199  RH  086%=      5-min Rain = 0
KHA3 271306Z 15013G19KT 22/20 A2985 RMK A01 T02240198  RH  085%=      5-min Rain = 0
KHA3 271307Z 15010KT 23/20 A2985 RMK A01 T02250199  RH  085%=      5-min Rain = 0
KHA3 271308Z 15013KT 23/20 A2985 RMK A01 T02250199  RH  085%=      5-min Rain = 0
KHA3 271309Z 16013KT 23/20 A2985 RMK A01 T02250199  RH  085%=      5-min Rain = 0
KHA3 271310Z 15010KT 23/20 A2985 RMK A01 T02250199  RH  085%=      5-min Rain = 0
KHA3 271311Z 16011KT 23/20 A2985 RMK A01 T02250200  RH  085%=      5-min Rain = 0
KHA3 271312Z 16011KT 23/20 A2985 RMK A01 T02250199  RH  085%=      5-min Rain = 0
KHA3 271313Z 15009KT 23/20 A2985 RMK A01 T02260200  RH  086%=      5-min Rain = 0
KHA3 271314Z 16012KT 23/20 A2985 RMK A01 T02260200  RH  085%=      5-min Rain = 0
KHA3 271315Z 15008KT 23/20 A2985 RMK A01 T02260200  RH  085%=      5-min Rain = 0
KHA3 271316Z 16011KT 23/20 A2985 RMK A01 T02260201  RH  085%=      5-min Rain = 0
KHA3 271317Z 15010KT 23/20 A2985 RMK A01 T02270201  RH  085%=      5-min Rain = 0
KHA3 271318Z 15010KT 23/20 A2985 RMK A01 T02270201  RH  086%=      5-min Rain = 0
KHA3 271319Z 16011KT 23/20 A2985 RMK A01 T02270201  RH  085%=      5-min Rain = 0
KHA3 271320Z 16010KT 23/20 A2985 RMK A01 T02270201  RH  085%=      5-min Rain = 0
KHA3 271321Z 16012KT 23/20 A2985 RMK A01 T02270201  RH  085%=      5-min Rain = 0
KHA3 271322Z 16014KT 23/20 A2985 RMK A01 T02270200  RH  085%=      5-min Rain = 0
KHA3 271323Z 15012KT 23/20 A2985 RMK A01 T02270199  RH  084%=      5-min Rain = 0
KHA3 271324Z 16013KT 23/20 A2985 RMK A01 T02280200  RH  085%=      5-min Rain = 0
KHA3 271325Z 15011KT 23/20 A2985 RMK A01 T02280200  RH  084%=      5-min Rain = 0
KHA3 271326Z 15015KT 23/20 A2985 RMK A01 T02280200  RH  084%=      5-min Rain = 0
KHA3 271327Z 16012KT 23/20 A2985 RMK A01 T02280200  RH  084%=      5-min Rain = 0
KHA3 271328Z 16012KT 23/20 A2985 RMK A01 T02290201  RH  084%=      5-min Rain = 0
KHA3 271329Z 16010KT 23/20 A2985 RMK A01 T02290201  RH  084%=      5-min Rain = 0
KHA3 271330Z 15011G17KT 23/20 A2985 RMK A01 T02280201  RH  085%=      5-min Rain = 0
KHA3 271331Z 16014KT 23/20 A2985 RMK A01 T02290200  RH  084%=      5-min Rain = 0
KHA3 271332Z 16013KT 23/20 A2985 RMK A01 T02290201  RH  084%=      5-min Rain = 0
KHA3 271333Z 16011KT 23/20 A2985 RMK A01 T02300200  RH  084%=      5-min Rain = 0
KHA3 271334Z 16011KT 23/20 A2985 RMK A01 T02300201  RH  084%=      5-min Rain = 0
KHA3 271335Z 16012KT 23/20 A2985 RMK A01 T02300201  RH  083%=      5-min Rain = 0
KHA3 271336Z 16009KT 23/20 A2985 RMK A01 T02300201  RH  084%=      5-min Rain = 0
KHA3 271337Z 16011KT 23/20 A2985 RMK A01 T02310202  RH  084%=      5-min Rain = 0
KHA3 271338Z 17014KT 23/20 A2985 RMK A01 T02310201  RH  083%=      5-min Rain = 0
KHA3 271339Z 17012KT 23/20 A2985 RMK A01 T02320200  RH  082%=      5-min Rain = 0
KHA3 271340Z 16010KT 23/20 A2985 RMK A01 T02320201  RH  083%=      5-min Rain = 0
KHA3 271341Z 16011KT 23/20 A2985 RMK A01 T02320201  RH  083%=      5-min Rain = 0
KHA3 271342Z 17010KT 23/20 A2985 RMK A01 T02330202  RH  083%=      5-min Rain = 0
KHA3 271343Z 17008KT 23/20 A2985 RMK A01 T02330203  RH  083%=      5-min Rain = 0
KHA3 271344Z 16009KT 23/20 A2985 RMK A01 T02340203  RH  083%=      5-min Rain = 0
KHA3 271345Z 17013KT 23/20 A2985 RMK A01 T02340202  RH  082%=      5-min Rain = 0
KHA3 271346Z 16011KT 24/20 A2985 RMK A01 T02350201  RH  082%=      5-min Rain = 0
KHA3 271347Z 16013KT 23/20 A2985 RMK A01 T02340201  RH  081%=      5-min Rain = 0
KHA3 271348Z 16012KT 24/20 A2985 RMK A01 T02350201  RH  081%=      5-min Rain = 0
KHA3 271349Z 16012KT 24/20 A2985 RMK A01 T02350201  RH  081%=      5-min Rain = 0
KHA3 271350Z 16011KT 24/20 A2985 RMK A01 T02350202  RH  082%=      5-min Rain = 0
KHA3 271351Z 16012KT 24/20 A2985 RMK A01 T02360202  RH  081%=      5-min Rain = 0
KHA3 271352Z 17013KT 24/20 A2985 RMK A01 T02360202  RH  081%=      5-min Rain = 0
KHA3 271353Z 16010KT 24/20 A2985 RMK A01 T02370202  RH  081%=      5-min Rain = 0
KHA3 271354Z 17011G16KT 24/20 A2985 RMK A01 T02370202  RH  081%=      5-min Rain = 0
KHA3 271355Z 17011G17KT 24/20 A2985 RMK A01 T02380203  RH  081%=      5-min Rain = 0
KHA3 271356Z 17014KT 24/20 A2985 RMK A01 T02380202  RH  080%=      5-min Rain = 0
KHA3 271357Z 16014KT 24/20 A2985 RMK A01 T02380202  RH  080%=      5-min Rain = 0
KHA3 271358Z 17016KT 24/20 A2985 RMK A01 T02390201  RH  079%=      5-min Rain = 0
KHA3 271359Z 16011KT 24/20 A2985 RMK A01 T02390202  RH  080%=      5-min Rain = 0
KHA3 271400Z 16011KT 24/20 A2985 RMK A01 T02390203  RH  080%=      5-min Rain = 0
KHA3 271401Z 17017KT 24/20 A2985 RMK A01 T02390202  RH  080%=      5-min Rain = 0
KHA3 271402Z 16015KT 24/20 A2985 RMK A01 T02390201  RH  079%=      5-min Rain = 0
KHA3 271403Z 17013KT 24/20 A2985 RMK A01 T02390201  RH  079%=      5-min Rain = 0
KHA3 271404Z 17011KT 24/20 A2985 RMK A01 T02390204  RH  080%=      5-min Rain = 0
KHA3 271405Z 17013KT 24/20 A2985 RMK A01 T02400203  RH  080%=      5-min Rain = 0
KHA3 271406Z 17014KT 24/20 A2985 RMK A01 T02400202  RH  079%=      5-min Rain = 0
KHA3 271407Z 17013KT 24/20 A2985 RMK A01 T02400202  RH  079%=      5-min Rain = 0
KHA3 271408Z 17014KT 24/20 A2985 RMK A01 T02400201  RH  079%=      5-min Rain = 0
KHA3 271409Z 17014KT 24/20 A2985 RMK A01 T02410202  RH  079%=      5-min Rain = 0
KHA3 271410Z 16014KT 24/20 A2985 RMK A01 T02410202  RH  079%=      5-min Rain = 0
KHA3 271411Z 16013KT 24/20 A2985 RMK A01 T02400202  RH  079%=      5-min Rain = 0
KHA3 271412Z 16014KT 24/20 A2985 RMK A01 T02400202  RH  079%=      5-min Rain = 0
KHA3 271413Z 17014KT 24/20 A2985 RMK A01 T02400202  RH  079%=      5-min Rain = 0
KHA3 271414Z 17014KT 24/20 A2985 RMK A01 T02400202  RH  079%=      5-min Rain = 0
KHA3 271415Z 17015KT 24/20 A2985 RMK A01 T02400202  RH  079%=      5-min Rain = 0
KHA3 271416Z 17014KT 24/20 A2985 RMK A01 T02400202  RH  079%=      5-min Rain = 0
KHA3 271417Z 16012KT 24/20 A2985 RMK A01 T02400203  RH  080%=      5-min Rain = 0
KHA3 271418Z 16014KT 24/20 A2985 RMK A01 T02400202  RH  079%=      5-min Rain = 0
KHA3 271419Z 17011KT 24/20 A2985 RMK A01 T02410203  RH  079%=      5-min Rain = 0
KHA3 271420Z 18011G16KT 24/20 A2985 RMK A01 T02410204  RH  080%=      5-min Rain = 0
KHA3 271421Z 18015KT 24/20 A2985 RMK A01 T02420202  RH  078%=      5-min Rain = 0
KHA3 271422Z 17014KT 24/20 A2985 RMK A01 T02410202  RH  078%=      5-min Rain = 0
KHA3 271423Z 17013KT 24/20 A2985 RMK A01 T02420202  RH  079%=      5-min Rain = 0
KHA3 271424Z 17012KT 24/20 A2985 RMK A01 T02410202  RH  079%=      5-min Rain = 0
KHA3 271425Z 16011KT 24/20 A2985 RMK A01 T02420203  RH  079%=      5-min Rain = 0
KHA3 271426Z 15012KT 24/20 A2985 RMK A01 T02420204  RH  079%=      5-min Rain = 0
KHA3 271427Z 16011G16KT 24/20 A2985 RMK A01 T02430204  RH  079%=      5-min Rain = 0
KHA3 271428Z 17012KT 24/20 A2985 RMK A01 T02430202  RH  078%=      5-min Rain = 0
KHA3 271429Z 17015KT 24/20 A2985 RMK A01 T02430202  RH  078%=      5-min Rain = 0
KHA3 271430Z 16014KT 24/20 A2985 RMK A01 T02420202  RH  078%=      5-min Rain = 0
KHA3 271431Z 17013KT 24/20 A2985 RMK A01 T02420202  RH  079%=      5-min Rain = 0
KHA3 271432Z 17011KT 24/20 A2985 RMK A01 T02420203  RH  079%=      5-min Rain = 0
KHA3 271433Z 16011KT 24/20 A2986 RMK A01 T02420204  RH  079%=      5-min Rain = 0
KHA3 271434Z 17010KT 24/20 A2986 RMK A01 T02420204  RH  079%=      5-min Rain = 0
KHA3 271435Z 17011KT 24/20 A2986 RMK A01 T02430204  RH  079%=      5-min Rain = 0
KHA3 271436Z 17010KT 24/20 A2986 RMK A01 T02430203  RH  078%=      5-min Rain = 0
KHA3 271437Z 18010KT 24/20 A2986 RMK A01 T02430204  RH  079%=      5-min Rain = 0
KHA3 271438Z 18011KT 24/20 A2986 RMK A01 T02430203  RH  079%=      5-min Rain = 0
KHA3 271439Z 18011KT 24/20 A2986 RMK A01 T02430203  RH  078%=      5-min Rain = 0
KHA3 271440Z 17014KT 24/20 A2986 RMK A01 T02430202  RH  078%=      5-min Rain = 0
KHA3 271441Z 17011KT 24/20 A2986 RMK A01 T02420202  RH  078%=      5-min Rain = 0
KHA3 271442Z 16010KT 24/20 A2986 RMK A01 T02420204  RH  079%=      5-min Rain = 0
KHA3 271443Z 17010KT 24/21 A2986 RMK A01 T02430205  RH  079%=      5-min Rain = 0
KHA3 271444Z 17011KT 24/20 A2986 RMK A01 T02440204  RH  078%=      5-min Rain = 0
KHA3 271445Z 16013KT 24/20 A2986 RMK A01 T02440203  RH  078%=      5-min Rain = 0
KHA3 271446Z 16011KT 24/20 A2986 RMK A01 T02440204  RH  078%=      5-min Rain = 0
KHA3 271447Z 16012KT 24/20 A2986 RMK A01 T02440203  RH  078%=      5-min Rain = 0
KHA3 271448Z 16009KT 24/20 A2986 RMK A01 T02440204  RH  078%=      5-min Rain = 0
KHA3 271449Z 17009KT 25/21 A2986 RMK A01 T02450206  RH  079%=      5-min Rain = 0
KHA3 271450Z 16011KT 25/21 A2986 RMK A01 T02460206  RH  078%=      5-min Rain = 0
KHA3 271451Z 16013KT 25/20 A2986 RMK A01 T02470204  RH  077%=      5-min Rain = 0
KHA3 271452Z 17013KT 25/20 A2986 RMK A01 T02460203  RH  077%=      5-min Rain = 0
KHA3 271453Z 16015KT 25/20 A2986 RMK A01 T02450202  RH  077%=      5-min Rain = 0
KHA3 271454Z 17015KT 24/20 A2986 RMK A01 T02440202  RH  077%=      5-min Rain = 0
KHA3 271455Z 18014KT 24/20 A2986 RMK A01 T02440202  RH  077%=      5-min Rain = 0
KHA3 271456Z 18013KT 24/20 A2986 RMK A01 T02440202  RH  078%=      5-min Rain = 0
KHA3 271457Z 16011KT 24/20 A2985 RMK A01 T02440202  RH  077%=      5-min Rain = 0
KHA3 271458Z 16012KT 25/20 A2985 RMK A01 T02450204  RH  078%=      5-min Rain = 0
KHA3 271459Z 18013KT 25/20 A2985 RMK A01 T02460203  RH  077%=      5-min Rain = 0
KHA3 271500Z 17014KT 25/20 A2985 RMK A01 T02470203  RH  077%=      5-min Rain = 0
KHA3 271506Z 17014KT 25/21 A2985 RMK A01 T02500205  RH  076%=      5-min Rain = 0
KHA3 271507Z 17013KT 25/20 A2985 RMK A01 T02500204  RH  076%=      5-min Rain = 0
KHA3 271508Z 17011KT 25/20 A2985 RMK A01 T02490204  RH  076%=      5-min Rain = 0
KHA3 271509Z 17011KT 25/20 A2985 RMK A01 T02490204  RH  076%=      5-min Rain = 0
KHA3 271510Z 17012KT 25/20 A2985 RMK A01 T02490204  RH  076%=      5-min Rain = 0
KHA3 271511Z 17009KT 25/20 A2985 RMK A01 T02490204  RH  076%=      5-min Rain = 0
KHA3 271512Z 17009KT 25/21 A2985 RMK A01 T02490206  RH  077%=      5-min Rain = 0
KHA3 271513Z 17010KT 25/21 A2985 RMK A01 T02510207  RH  077%=      5-min Rain = 0
KHA3 271514Z 17012KT 25/21 A2985 RMK A01 T02520206  RH  076%=      5-min Rain = 0
KHA3 271515Z 16012KT 25/21 A2985 RMK A01 T02540208  RH  076%=      5-min Rain = 0
KHA3 271516Z 16012KT 26/21 A2985 RMK A01 T02550205  RH  074%=      5-min Rain = 0
KHA3 271517Z 17011KT 25/20 A2985 RMK A01 T02530204  RH  074%=      5-min Rain = 0
KHA3 271518Z 16011KT 25/21 A2985 RMK A01 T02530206  RH  075%=      5-min Rain = 0
KHA3 271519Z 16010KT 25/21 A2985 RMK A01 T02530205  RH  075%=      5-min Rain = 0
KHA3 271520Z 16012KT 25/21 A2985 RMK A01 T02520205  RH  075%=      5-min Rain = 0
KHA3 271521Z 18012KT 25/21 A2985 RMK A01 T02530205  RH  075%=      5-min Rain = 0
KHA3 271522Z 18013KT 25/21 A2985 RMK A01 T02520205  RH  075%=      5-min Rain = 0
KHA3 271523Z 17011KT 25/21 A2985 RMK A01 T02510205  RH  075%=      5-min Rain = 0
KHA3 271524Z 18011KT 25/21 A2985 RMK A01 T02510205  RH  076%=      5-min Rain = 0
KHA3 271525Z 17010KT 25/20 A2985 RMK A01 T02510204  RH  075%=      5-min Rain = 0
KHA3 271526Z 17012KT 25/21 A2985 RMK A01 T02520208  RH  076%=      5-min Rain = 0
KHA3 271527Z 17013KT 26/21 A2985 RMK A01 T02550206  RH  074%=      5-min Rain = 0
KHA3 271528Z 18013KT 26/21 A2985 RMK A01 T02550205  RH  074%=      5-min Rain = 0
KHA3 271529Z 17011KT 26/21 A2985 RMK A01 T02550206  RH  074%=      5-min Rain = 0
KHA3 271530Z 18013KT 26/21 A2985 RMK A01 T02560207  RH  074%=      5-min Rain = 0
KHA3 271531Z 18013KT 26/21 A2985 RMK A01 T02570206  RH  073%=      5-min Rain = 0
KHA3 271532Z 18012KT 26/21 A2985 RMK A01 T02560205  RH  073%=      5-min Rain = 0
KHA3 271533Z 16012KT 26/21 A2985 RMK A01 T02560209  RH  075%=      5-min Rain = 0
KHA3 271534Z 16013KT 26/21 A2985 RMK A01 T02580206  RH  073%=      5-min Rain = 0
KHA3 271535Z 18011KT 26/21 A2985 RMK A01 T02580208  RH  074%=      5-min Rain = 0
KHA3 271536Z 17012KT 26/21 A2985 RMK A01 T02580207  RH  073%=      5-min Rain = 0
KHA3 271537Z 18010KT 26/21 A2985 RMK A01 T02580209  RH  074%=      5-min Rain = 0
KHA3 271538Z 18011KT 26/21 A2985 RMK A01 T02590207  RH  073%=      5-min Rain = 0
KHA3 271539Z 16013KT 26/21 A2985 RMK A01 T02590207  RH  073%=      5-min Rain = 0
KHA3 271540Z 16012KT 26/21 A2985 RMK A01 T02570205  RH  073%=      5-min Rain = 0
KHA3 271541Z 16013KT 26/20 A2985 RMK A01 T02560204  RH  073%=      5-min Rain = 0
KHA3 271542Z 17010KT 26/21 A2985 RMK A01 T02560208  RH  075%=      5-min Rain = 0
KHA3 271543Z 16010KT 26/21 A2985 RMK A01 T02610212  RH  075%=      5-min Rain = 0
KHA3 271544Z 17013KT 26/21 A2985 RMK A01 T02630210  RH  073%=      5-min Rain = 0
KHA3 271545Z 17012KT 26/21 A2985 RMK A01 T02640209  RH  072%=      5-min Rain = 0
KHA3 271546Z 17012KT 26/21 A2985 RMK A01 T02630210  RH  072%=      5-min Rain = 0
KHA3 271547Z 17014KT 26/21 A2984 RMK A01 T02640210  RH  072%=      5-min Rain = 0
KHA3 271548Z 17013G18KT 27/21 A2984 RMK A01 T02650210  RH  072%=      5-min Rain = 0
KHA3 271549Z 17014KT 27/21 A2985 RMK A01 T02660208  RH  071%=      5-min Rain = 0
KHA3 271550Z 18013KT 27/21 A2985 RMK A01 T02660209  RH  071%=      5-min Rain = 0
KHA3 271551Z 18012KT 27/21 A2985 RMK A01 T02660211  RH  072%=      5-min Rain = 0
KHA3 271552Z 18012KT 26/21 A2985 RMK A01 T02640207  RH  071%=      5-min Rain = 0
KHA3 271553Z 18012KT 26/21 A2985 RMK A01 T02610206  RH  072%=      5-min Rain = 0
KHA3 271554Z 18013KT 26/21 A2985 RMK A01 T02590206  RH  072%=      5-min Rain = 0
KHA3 271555Z 18013KT 26/21 A2985 RMK A01 T02590206  RH  072%=      5-min Rain = 0
KHA3 271556Z 18015KT 26/21 A2985 RMK A01 T02590206  RH  072%=      5-min Rain = 0
KHA3 271557Z 18012KT 26/21 A2985 RMK A01 T02570205  RH  073%=      5-min Rain = 0
KHA3 271558Z 18013KT 26/21 A2985 RMK A01 T02580208  RH  074%=      5-min Rain = 0
KHA3 271559Z 17013KT 26/21 A2985 RMK A01 T02600208  RH  073%=      5-min Rain = 0
KHA3 271600Z 18013KT 26/21 A2985 RMK A01 T02620209  RH  073%=      5-min Rain = 0
KHA3 271601Z 17012KT 26/21 A2985 RMK A01 T02630206  RH  071%=      5-min Rain = 0
KHA3 271602Z 17012KT 26/21 A2985 RMK A01 T02630207  RH  071%=      5-min Rain = 0
KHA3 271603Z 18013KT 26/21 A2985 RMK A01 T02630209  RH  072%=      5-min Rain = 0
KHA3 271604Z 18014KT 26/21 A2985 RMK A01 T02640209  RH  072%=      5-min Rain = 0
KHA3 271605Z 19013KT 27/21 A2985 RMK A01 T02650209  RH  072%=      5-min Rain = 0
KHA3 271606Z 18013KT 26/21 A2985 RMK A01 T02640210  RH  072%=      5-min Rain = 0
KHA3 271607Z 17013KT 27/21 A2985 RMK A01 T02650209  RH  072%=      5-min Rain = 0
KHA3 271608Z 18015KT 26/21 A2985 RMK A01 T02640208  RH  071%=      5-min Rain = 0
KHA3 271609Z 18015KT 26/21 A2985 RMK A01 T02630207  RH  071%=      5-min Rain = 0
KHA3 271610Z 18015KT 26/21 A2985 RMK A01 T02610205  RH  071%=      5-min Rain = 0
KHA3 271611Z 18011KT 26/21 A2985 RMK A01 T02600205  RH  072%=      5-min Rain = 0
KHA3 271612Z 17011KT 26/21 A2985 RMK A01 T02590207  RH  073%=      5-min Rain = 0
KHA3 271613Z 18013KT 26/21 A2985 RMK A01 T02600207  RH  073%=      5-min Rain = 0
KHA3 271614Z 19014KT 26/21 A2985 RMK A01 T02600207  RH  073%=      5-min Rain = 0
KHA3 271615Z 18013KT 26/21 A2985 RMK A01 T02590207  RH  073%=      5-min Rain = 0
KHA3 271616Z 16011KT 26/21 A2985 RMK A01 T02610211  RH  074%=      5-min Rain = 0
KHA3 271617Z 17011KT 27/21 A2985 RMK A01 T02660212  RH  072%=      5-min Rain = 0
KHA3 271618Z 17010G15KT 27/21 A2985 RMK A01 T02680213  RH  072%=      5-min Rain = 0
KHA3 271619Z 17015KT 27/21 A2985 RMK A01 T02690213  RH  071%=      5-min Rain = 0
KHA3 271620Z 17013KT 27/21 A2985 RMK A01 T02690211  RH  071%=      5-min Rain = 0
KHA3 271621Z 19014KT 27/21 A2985 RMK A01 T02690212  RH  071%=      5-min Rain = 0
KHA3 271622Z 19015KT 27/21 A2984 RMK A01 T02710212  RH  070%=      5-min Rain = 0
KHA3 271623Z 19011KT 27/22 A2985 RMK A01 T02720215  RH  071%=      5-min Rain = 0
KHA3 271624Z 19012KT 27/21 A2985 RMK A01 T02720212  RH  070%=      5-min Rain = 0
KHA3 271625Z 20013KT 27/21 A2985 RMK A01 T02690211  RH  070%=      5-min Rain = 0
KHA3 271626Z 19010KT 27/21 A2984 RMK A01 T02660208  RH  070%=      5-min Rain = 0
KHA3 271627Z 20013KT 27/21 A2984 RMK A01 T02660211  RH  072%=      5-min Rain = 0
KHA3 271628Z 18011KT 27/21 A2984 RMK A01 T02680212  RH  071%=      5-min Rain = 0
KHA3 271629Z 18013KT 27/21 A2984 RMK A01 T02710213  RH  071%=      5-min Rain = 0
KHA3 271630Z 18015KT 27/21 A2984 RMK A01 T02710210  RH  069%=      5-min Rain = 0
KHA3 271631Z 18015KT 27/21 A2984 RMK A01 T02680210  RH  071%=      5-min Rain = 0
KHA3 271632Z 18016KT 27/21 A2984 RMK A01 T02660206  RH  070%=      5-min Rain = 0
KHA3 271633Z 19012KT 27/21 A2984 RMK A01 T02650209  RH  071%=      5-min Rain = 0
KHA3 271634Z 19012KT 27/21 A2984 RMK A01 T02670212  RH  072%=      5-min Rain = 0
KHA3 271635Z 17011KT 27/21 A2984 RMK A01 T02700214  RH  072%=      5-min Rain = 0
KHA3 271636Z 18011KT 27/21 A2984 RMK A01 T02720213  RH  070%=      5-min Rain = 0
KHA3 271637Z 19014G19KT 27/21 A2984 RMK A01 T02720212  RH  070%=      5-min Rain = 0
KHA3 271638Z 19016KT 27/21 A2984 RMK A01 T02690209  RH  070%=      5-min Rain = 0
KHA3 271639Z 19014KT 27/21 A2984 RMK A01 T02670209  RH  071%=      5-min Rain = 0
KHA3 271640Z 18013KT 27/21 A2984 RMK A01 T02680209  RH  070%=      5-min Rain = 0
KHA3 271641Z 18011KT 27/21 A2984 RMK A01 T02690211  RH  071%=      5-min Rain = 0
KHA3 271642Z 17013KT 27/21 A2984 RMK A01 T02710213  RH  070%=      5-min Rain = 0
KHA3 271643Z 17013KT 27/21 A2984 RMK A01 T02720210  RH  069%=      5-min Rain = 0
KHA3 271644Z 16012KT 27/21 A2984 RMK A01 T02720210  RH  069%=      5-min Rain = 0
KHA3 271645Z 16014KT 27/21 A2984 RMK A01 T02720213  RH  070%=      5-min Rain = 0
KHA3 271646Z 18015KT 27/21 A2984 RMK A01 T02740211  RH  069%=      5-min Rain = 0
KHA3 271647Z 19013KT 27/21 A2984 RMK A01 T02740212  RH  069%=      5-min Rain = 0
KHA3 271648Z 19015KT 27/21 A2984 RMK A01 T02740211  RH  068%=      5-min Rain = 0
KHA3 271649Z 18015KT 27/21 A2984 RMK A01 T02740212  RH  069%=      5-min Rain = 0
KHA3 271650Z 18012KT 27/21 A2984 RMK A01 T02740211  RH  068%=      5-min Rain = 0
KHA3 271651Z 19011KT 27/21 A2984 RMK A01 T02730211  RH  069%=      5-min Rain = 0
KHA3 271652Z 19013KT 27/21 A2984 RMK A01 T02700210  RH  070%=      5-min Rain = 0
KHA3 271653Z 20013KT 27/21 A2984 RMK A01 T02690210  RH  070%=      5-min Rain = 0
KHA3 271654Z 18009KT 27/22 A2984 RMK A01 T02710215  RH  071%=      5-min Rain = 0
KHA3 271655Z 18011KT 28/21 A2984 RMK A01 T02750213  RH  069%=      5-min Rain = 0
KHA3 271656Z 17012KT 28/21 A2984 RMK A01 T02760213  RH  069%=      5-min Rain = 0
KHA3 271657Z 18012KT 28/21 A2984 RMK A01 T02760213  RH  069%=      5-min Rain = 0
KHA3 271658Z 18012KT 28/22 A2984 RMK A01 T02770215  RH  069%=      5-min Rain = 0
KHA3 271659Z 18013KT 28/21 A2984 RMK A01 T02780212  RH  067%=      5-min Rain = 0
KHA3 271700Z 18012KT 28/21 A2983 RMK A01 T02760212  RH  068%=      5-min Rain = 0
KHA3 271701Z 17013KT 28/21 A2983 RMK A01 T02760213  RH  069%=      5-min Rain = 0
KHA3 271702Z 18013KT 28/21 A2983 RMK A01 T02750214  RH  069%=      5-min Rain = 0
KHA3 271703Z 18014KT 28/21 A2983 RMK A01 T02750212  RH  069%=      5-min Rain = 0
KHA3 271704Z 17015KT 27/21 A2983 RMK A01 T02740211  RH  068%=      5-min Rain = 0
KHA3 271705Z 18012KT 27/21 A2983 RMK A01 T02730209  RH  068%=      5-min Rain = 0
KHA3 271706Z 17012KT 27/21 A2983 RMK A01 T02740214  RH  070%=      5-min Rain = 0
KHA3 271707Z 17013KT 28/21 A2983 RMK A01 T02770213  RH  068%=      5-min Rain = 0
KHA3 271708Z 17014KT 28/21 A2983 RMK A01 T02780214  RH  068%=      5-min Rain = 0
KHA3 271709Z 17012KT 28/21 A2983 RMK A01 T02790214  RH  068%=      5-min Rain = 0
KHA3 271710Z 18014KT 28/21 A2983 RMK A01 T02810214  RH  067%=      5-min Rain = 0
KHA3 271711Z 18012KT 28/21 A2983 RMK A01 T02810214  RH  067%=      5-min Rain = 0
KHA3 271712Z 18009KT 28/21 A2983 RMK A01 T02800212  RH  066%=      5-min Rain = 0
KHA3 271713Z 19009KT 28/22 A2983 RMK A01 T02780216  RH  069%=      5-min Rain = 0
KHA3 271714Z 19012KT 28/22 A2983 RMK A01 T02790215  RH  068%=      5-min Rain = 0
KHA3 271715Z 19010KT 28/21 A2983 RMK A01 T02820211  RH  065%=      5-min Rain = 0
KHA3 271716Z 19014KT 28/21 A2983 RMK A01 T02830213  RH  066%=      5-min Rain = 0
KHA3 271717Z 19014KT 28/21 A2983 RMK A01 T02840208  RH  064%=      5-min Rain = 0
KHA3 271718Z 20012KT 28/21 A2983 RMK A01 T02830209  RH  064%=      5-min Rain = 0
KHA3 271719Z 19010KT 28/21 A2983 RMK A01 T02830209  RH  064%=      5-min Rain = 0
KHA3 271720Z 19012KT 28/21 A2983 RMK A01 T02830209  RH  064%=      5-min Rain = 0
KHA3 271721Z 18013G18KT 28/21 A2983 RMK A01 T02810207  RH  064%=      5-min Rain = 0
KHA3 271722Z 18017KT 28/21 A2983 RMK A01 T02800209  RH  065%=      5-min Rain = 0
KHA3 271723Z 19014KT 28/21 A2983 RMK A01 T02810208  RH  064%=      5-min Rain = 0
KHA3 271724Z 19012KT 28/21 A2983 RMK A01 T02820207  RH  064%=      5-min Rain = 0
KHA3 271725Z 18011KT 28/21 A2983 RMK A01 T02810209  RH  065%=      5-min Rain = 0
KHA3 271726Z 17011G16KT 28/21 A2983 RMK A01 T02830213  RH  066%=      5-min Rain = 0
KHA3 271727Z 18012KT 29/21 A2983 RMK A01 T02860213  RH  065%=      5-min Rain = 0
KHA3 271728Z 21012KT 29/22 A2983 RMK A01 T02880217  RH  065%=      5-min Rain = 0
KHA3 271729Z 21010KT 29/22 A2983 RMK A01 T02890215  RH  064%=      5-min Rain = 0
KHA3 271730Z 20010KT 29/21 A2983 RMK A01 T02900214  RH  064%=      5-min Rain = 0
KHA3 271731Z 20007KT 29/21 A2983 RMK A01 T02900214  RH  064%=      5-min Rain = 0
KHA3 271732Z 19008KT 29/22 A2983 RMK A01 T02900220  RH  066%=      5-min Rain = 0
KHA3 271733Z 17010KT 29/22 A2983 RMK A01 T02920215  RH  063%=      5-min Rain = 0
KHA3 271734Z 18014KT 29/22 A2983 RMK A01 T02910215  RH  064%=      5-min Rain = 0
KHA3 271735Z 17011KT 29/21 A2983 RMK A01 T02890212  RH  063%=      5-min Rain = 0
KHA3 271736Z 21013KT 29/22 A2983 RMK A01 T02890218  RH  066%=      5-min Rain = 0
KHA3 271737Z 21014KT 29/21 A2983 RMK A01 T02900211  RH  062%=      5-min Rain = 0
KHA3 271738Z 20011KT 29/21 A2983 RMK A01 T02880211  RH  063%=      5-min Rain = 0
KHA3 271739Z 18012KT 29/21 A2983 RMK A01 T02870210  RH  063%=      5-min Rain = 0
KHA3 271740Z 19012KT 29/21 A2983 RMK A01 T02860208  RH  063%=      5-min Rain = 0
KHA3 271741Z 18013KT 28/21 A2983 RMK A01 T02840207  RH  063%=      5-min Rain = 0
KHA3 271742Z 17013KT 28/21 A2983 RMK A01 T02830211  RH  065%=      5-min Rain = 0
KHA3 271743Z 18014KT 28/21 A2983 RMK A01 T02820211  RH  065%=      5-min Rain = 0
KHA3 271744Z 19014KT 28/21 A2983 RMK A01 T02820209  RH  065%=      5-min Rain = 0
KHA3 271745Z 18011KT 28/21 A2983 RMK A01 T02820213  RH  066%=      5-min Rain = 0
KHA3 271746Z 20010KT 28/22 A2983 RMK A01 T02820215  RH  067%=      5-min Rain = 0
KHA3 271747Z 21011KT 28/21 A2983 RMK A01 T02840206  RH  063%=      5-min Rain = 0
KHA3 271748Z 20009KT 29/21 A2983 RMK A01 T02850210  RH  064%=      5-min Rain = 0
KHA3 271749Z 19011KT 29/21 A2983 RMK A01 T02860211  RH  064%=      5-min Rain = 0
KHA3 271750Z 17015KT 29/21 A2983 RMK A01 T02850207  RH  063%=      5-min Rain = 0
KHA3 271751Z 18014KT 28/21 A2983 RMK A01 T02830206  RH  063%=      5-min Rain = 0
KHA3 271752Z 17012KT 28/21 A2983 RMK A01 T02830209  RH  064%=      5-min Rain = 0
KHA3 271753Z 18011KT 29/21 A2983 RMK A01 T02860212  RH  064%=      5-min Rain = 0
KHA3 271754Z 17010KT 29/22 A2983 RMK A01 T02890215  RH  064%=      5-min Rain = 0
KHA3 271755Z 17011KT 29/21 A2983 RMK A01 T02900214  RH  063%=      5-min Rain = 0
KHA3 271756Z 18010KT 29/21 A2983 RMK A01 T02910212  RH  062%=      5-min Rain = 0
KHA3 271757Z 18009KT 29/22 A2983 RMK A01 T02900216  RH  064%=      5-min Rain = 0
KHA3 271758Z 18009KT 29/22 A2983 RMK A01 T02910215  RH  064%=      5-min Rain = 0
KHA3 271759Z 19011G16KT 29/21 A2983 RMK A01 T02910214  RH  063%=      5-min Rain = 0
KHA3 271800Z 19013KT 29/21 A2982 RMK A01 T02880211  RH  063%=      5-min Rain = 0
KHA3 271801Z 19012KT 28/21 A2982 RMK A01 T02840211  RH  065%=      5-min Rain = 0
KHA3 271802Z 18012G17KT 28/21 A2982 RMK A01 T02830213  RH  066%=      5-min Rain = 0
KHA3 271803Z 18014KT 29/21 A2982 RMK A01 T02850210  RH  064%=      5-min Rain = 0
KHA3 271804Z 18012KT 29/21 A2982 RMK A01 T02860209  RH  063%=      5-min Rain = 0
KHA3 271805Z 18014KT 29/21 A2982 RMK A01 T02860209  RH  063%=      5-min Rain = 0
KHA3 271806Z 18012KT 29/21 A2982 RMK A01 T02880209  RH  062%=      5-min Rain = 0
KHA3 271807Z 19009KT 29/21 A2982 RMK A01 T02890212  RH  063%=      5-min Rain = 0
KHA3 271808Z 17012KT 29/21 A2982 RMK A01 T02900211  RH  062%=      5-min Rain = 0
KHA3 271809Z 18012KT 29/21 A2982 RMK A01 T02910213  RH  063%=      5-min Rain = 0
KHA3 271810Z 18011KT 29/21 A2982 RMK A01 T02930210  RH  061%=      5-min Rain = 0
KHA3 271811Z 19010KT 29/21 A2982 RMK A01 T02940214  RH  062%=      5-min Rain = 0
KHA3 271812Z 18012KT 29/21 A2982 RMK A01 T02930214  RH  062%=      5-min Rain = 0
KHA3 271813Z 18013KT 29/21 A2982 RMK A01 T02940210  RH  061%=      5-min Rain = 0
KHA3 271814Z 18012KT 29/21 A2982 RMK A01 T02930212  RH  061%=      5-min Rain = 0
KHA3 271815Z 17011KT 29/21 A2982 RMK A01 T02930214  RH  062%=      5-min Rain = 0
KHA3 271816Z 20011KT 29/22 A2982 RMK A01 T02940216  RH  063%=      5-min Rain = 0
KHA3 271817Z 19010KT 29/21 A2982 RMK A01 T02940212  RH  061%=      5-min Rain = 0
KHA3 271818Z 18011G18KT 29/22 A2982 RMK A01 T02930217  RH  064%=      5-min Rain = 0
KHA3 271819Z 18011KT 29/21 A2982 RMK A01 T02940214  RH  062%=      5-min Rain = 0
KHA3 271820Z 18013KT 29/21 A2982 RMK A01 T02940212  RH  061%=      5-min Rain = 0
KHA3 271821Z 17013KT 29/21 A2982 RMK A01 T02940212  RH  061%=      5-min Rain = 0
KHA3 271822Z 18015KT 29/21 A2982 RMK A01 T02940210  RH  061%=      5-min Rain = 0
KHA3 271823Z 17013KT 29/21 A2982 RMK A01 T02940209  RH  060%=      5-min Rain = 0
KHA3 271824Z 17011KT 29/22 A2982 RMK A01 T02940215  RH  063%=      5-min Rain = 0
KHA3 271825Z 18010KT 30/21 A2982 RMK A01 T02950209  RH  060%=      5-min Rain = 0
KHA3 271826Z 16012KT 29/21 A2982 RMK A01 T02940209  RH  060%=      5-min Rain = 0
KHA3 271827Z 17013KT 29/21 A2981 RMK A01 T02930210  RH  061%=      5-min Rain = 0
KHA3 271828Z 19014G19KT 29/21 A2981 RMK A01 T02940214  RH  062%=      5-min Rain = 0
KHA3 271829Z 20017KT 30/21 A2981 RMK A01 T02950211  RH  061%=      5-min Rain = 0
KHA3 271830Z 21014KT 30/21 A2981 RMK A01 T02950211  RH  060%=      5-min Rain = 0
KHA3 271831Z 20014KT 30/21 A2981 RMK A01 T02950213  RH  061%=      5-min Rain = 0
KHA3 271832Z 20013KT 30/21 A2981 RMK A01 T02950211  RH  061%=      5-min Rain = 0
KHA3 271833Z 20012KT 29/21 A2981 RMK A01 T02940212  RH  061%=      5-min Rain = 0
KHA3 271834Z 19011KT 29/21 A2981 RMK A01 T02940214  RH  062%=      5-min Rain = 0
KHA3 271835Z 20011KT 30/21 A2981 RMK A01 T02950214  RH  062%=      5-min Rain = 0
KHA3 271836Z 20014KT 30/22 A2981 RMK A01 T02960216  RH  062%=      5-min Rain = 0
KHA3 271837Z 20015KT 30/21 A2981 RMK A01 T02980213  RH  060%=      5-min Rain = 0
KHA3 271838Z 20014KT 30/21 A2981 RMK A01 T02980212  RH  060%=      5-min Rain = 0
KHA3 271839Z 21012KT 30/21 A2981 RMK A01 T02980209  RH  059%=      5-min Rain = 0
KHA3 271840Z 19011KT 30/21 A2981 RMK A01 T02970210  RH  059%=      5-min Rain = 0
KHA3 271841Z 19012KT 30/21 A2981 RMK A01 T02970209  RH  059%=      5-min Rain = 0
KHA3 271842Z 18011KT 30/21 A2981 RMK A01 T02970209  RH  059%=      5-min Rain = 0
KHA3 271843Z 17015KT 30/21 A2981 RMK A01 T02970210  RH  060%=      5-min Rain = 0
KHA3 271844Z 17015KT 30/21 A2981 RMK A01 T02970210  RH  059%=      5-min Rain = 0
KHA3 271845Z 18012KT 30/21 A2981 RMK A01 T02970208  RH  059%=      5-min Rain = 0
KHA3 271846Z 17013KT 30/21 A298 RMK A01 T02950207  RH  059%=      5-min Rain = 0
KHA3 271847Z 17012KT 29/21 A298 RMK A01 T02940213  RH  062%=      5-min Rain = 0
KHA3 271848Z 17015KT 30/21 A298 RMK A01 T02960211  RH  060%=      5-min Rain = 0
KHA3 271849Z 18014KT 30/21 A298 RMK A01 T02970211  RH  060%=      5-min Rain = 0
KHA3 271850Z 18013KT 30/21 A298 RMK A01 T02970210  RH  060%=      5-min Rain = 0
KHA3 271851Z 17010KT 30/21 A298 RMK A01 T02970209  RH  059%=      5-min Rain = 0
KHA3 271852Z 18010KT 30/22 A298 RMK A01 T02960215  RH  061%=      5-min Rain = 0
KHA3 271853Z 18012KT 30/21 A298 RMK A01 T02970211  RH  060%=      5-min Rain = 0
KHA3 271854Z 18010KT 30/22 A298 RMK A01 T02960219  RH  063%=      5-min Rain = 0
KHA3 271855Z 18013KT 30/22 A298 RMK A01 T02990215  RH  061%=      5-min Rain = 0
KHA3 271856Z 17013KT 30/21 A298 RMK A01 T02990214  RH  060%=      5-min Rain = 0
KHA3 271857Z 17014KT 30/21 A298 RMK A01 T02990214  RH  060%=      5-min Rain = 0
KHA3 271858Z 16013KT 30/21 A298 RMK A01 T02990214  RH  060%=      5-min Rain = 0
KHA3 271859Z 17012G17KT 30/22 A298 RMK A01 T02990218  RH  062%=      5-min Rain = 0
KHA3 271900Z 17014KT 30/21 A298 RMK A01 T03000214  RH  060%=      5-min Rain = 0
KHA3 271901Z 16012KT 30/22 A298 RMK A01 T02990216  RH  061%=      5-min Rain = 0
KHA3 271902Z 16014KT 30/22 A298 RMK A01 T03000215  RH  060%=      5-min Rain = 0
KHA3 271903Z 16010KT 30/21 A298 RMK A01 T03000214  RH  060%=      5-min Rain = 0
KHA3 271904Z 17011KT 30/22 A298 RMK A01 T03000215  RH  060%=      5-min Rain = 0
KHA3 271905Z 19014KT 30/21 A298 RMK A01 T02990213  RH  060%=      5-min Rain = 0
KHA3 271906Z 19012KT 30/21 A298 RMK A01 T03000213  RH  060%=      5-min Rain = 0
KHA3 271907Z 18011KT 30/21 A298 RMK A01 T03000211  RH  059%=      5-min Rain = 0
KHA3 271908Z 18009KT 30/22 A2979 RMK A01 T03000215  RH  060%=      5-min Rain = 0
KHA3 271909Z 18007KT 30/21 A2979 RMK A01 T03000212  RH  059%=      5-min Rain = 0
KHA3 271910Z 18011KT 30/21 A2979 RMK A01 T02990214  RH  060%=      5-min Rain = 0
KHA3 271911Z 18012KT 30/22 A2979 RMK A01 T02970215  RH  061%=      5-min Rain = 0
KHA3 271912Z 19013KT 30/21 A2979 RMK A01 T02960211  RH  060%=      5-min Rain = 0
KHA3 271913Z 17012KT 30/21 A2979 RMK A01 T02960213  RH  061%=      5-min Rain = 0
KHA3 271914Z 18014KT 30/22 A2979 RMK A01 T02980215  RH  061%=      5-min Rain = 0
KHA3 271915Z 18014KT 30/21 A2979 RMK A01 T03010209  RH  058%=      5-min Rain = 0
KHA3 271916Z 18015KT 30/21 A2979 RMK A01 T03010211  RH  059%=      5-min Rain = 0
KHA3 271917Z 19014KT 30/21 A2979 RMK A01 T03000210  RH  059%=      5-min Rain = 0
KHA3 271918Z 19012KT 30/21 A2979 RMK A01 T02990212  RH  059%=      5-min Rain = 0
KHA3 271919Z 18011KT 30/21 A2979 RMK A01 T02990211  RH  059%=      5-min Rain = 0
KHA3 271920Z 15014KT 30/21 A2979 RMK A01 T02980212  RH  060%=      5-min Rain = 0
KHA3 271921Z 16013KT 30/21 A2979 RMK A01 T02980213  RH  060%=      5-min Rain = 0
KHA3 271922Z 17013KT 30/21 A2979 RMK A01 T02960210  RH  060%=      5-min Rain = 0
KHA3 271923Z 17013KT 29/21 A2979 RMK A01 T02940211  RH  061%=      5-min Rain = 0
KHA3 271924Z 17011KT 30/22 A2979 RMK A01 T02960217  RH  062%=      5-min Rain = 0
KHA3 271925Z 18011KT 30/22 A2979 RMK A01 T03020223  RH  063%=      5-min Rain = 0
KHA3 271926Z 18014KT 30/22 A2979 RMK A01 T03040216  RH  059%=      5-min Rain = 0
KHA3 271927Z 17012KT 31/22 A2979 RMK A01 T03050215  RH  059%=      5-min Rain = 0
KHA3 271928Z 18014KT 30/21 A2979 RMK A01 T03030212  RH  058%=      5-min Rain = 0
KHA3 271929Z 20013KT 30/21 A2979 RMK A01 T03030209  RH  057%=      5-min Rain = 0
KHA3 271930Z 20012KT 30/21 A2979 RMK A01 T03030208  RH  057%=      5-min Rain = 0
KHA3 271931Z 21011KT 30/21 A2979 RMK A01 T03020210  RH  058%=      5-min Rain = 0
KHA3 271932Z 21008KT 30/21 A2979 RMK A01 T03030210  RH  057%=      5-min Rain = 0
KHA3 271933Z 16008KT 30/21 A2979 RMK A01 T03040213  RH  058%=      5-min Rain = 0
KHA3 271934Z 16011KT 31/21 A2979 RMK A01 T03050211  RH  057%=      5-min Rain = 0
KHA3 271935Z 17012KT 30/21 A2979 RMK A01 T03040212  RH  058%=      5-min Rain = 0
KHA3 271936Z 17012KT 30/22 A2979 RMK A01 T03030217  RH  060%=      5-min Rain = 0
KHA3 271937Z 17013KT 31/22 A2979 RMK A01 T03050216  RH  059%=      5-min Rain = 0
KHA3 271938Z 19014KT 31/21 A2979 RMK A01 T03060213  RH  058%=      5-min Rain = 0
KHA3 271939Z 19010KT 31/21 A2979 RMK A01 T03060214  RH  058%=      5-min Rain = 0
KHA3 271940Z 17010KT 31/22 A2979 RMK A01 T03050215  RH  058%=      5-min Rain = 0
KHA3 271941Z 18011G17KT 31/22 A2979 RMK A01 T03060215  RH  058%=      5-min Rain = 0
KHA3 271942Z 20012KT 31/22 A2979 RMK A01 T03070218  RH  059%=      5-min Rain = 0
KHA3 271943Z 19014KT 31/21 A2979 RMK A01 T03080209  RH  056%=      5-min Rain = 0
KHA3 271944Z 19011KT 31/21 A2979 RMK A01 T03060209  RH  056%=      5-min Rain = 0
KHA3 271945Z 20010KT 30/21 A2979 RMK A01 T03040207  RH  056%=      5-min Rain = 0
KHA3 271946Z 20012KT 30/21 A2979 RMK A01 T03030209  RH  057%=      5-min Rain = 0
KHA3 271947Z 17010G15KT 30/21 A2979 RMK A01 T03040213  RH  058%=      5-min Rain = 0
KHA3 271948Z 17012KT 31/21 A2979 RMK A01 T03050210  RH  057%=      5-min Rain = 0
KHA3 271949Z 17012KT 31/21 A2979 RMK A01 T03060213  RH  058%=      5-min Rain = 0
KHA3 271950Z 17013KT 31/21 A2979 RMK A01 T03070211  RH  057%=      5-min Rain = 0
KHA3 271951Z 18010KT 31/21 A2979 RMK A01 T03070210  RH  056%=      5-min Rain = 0
KHA3 271952Z 19013KT 31/21 A2979 RMK A01 T03060207  RH  056%=      5-min Rain = 0
KHA3 271953Z 19017KT 30/21 A2978 RMK A01 T03040210  RH  057%=      5-min Rain = 0
KHA3 271954Z 19015G20KT 31/21 A2979 RMK A01 T03050206  RH  055%=      5-min Rain = 0
KHA3 271955Z 21009KT 31/21 A2979 RMK A01 T03060212  RH  057%=      5-min Rain = 0
KHA3 271956Z 20010KT 31/21 A2978 RMK A01 T03070212  RH  057%=      5-min Rain = 0
KHA3 271957Z 20013KT 31/21 A2978 RMK A01 T03080210  RH  056%=      5-min Rain = 0
KHA3 271958Z 18013KT 31/21 A2978 RMK A01 T03080208  RH  055%=      5-min Rain = 0
KHA3 271959Z 20010KT 31/21 A2978 RMK A01 T03070212  RH  057%=      5-min Rain = 0
KHA3 272000Z 20013KT 31/21 A2978 RMK A01 T03080211  RH  056%=      5-min Rain = 0
KHA3 272001Z 20014KT 31/21 A2978 RMK A01 T03090208  RH  055%=      5-min Rain = 0
KHA3 272002Z 21012KT 31/21 A2978 RMK A01 T03080208  RH  055%=      5-min Rain = 0
KHA3 272003Z 19012KT 31/21 A2978 RMK A01 T03080211  RH  056%=      5-min Rain = 0
KHA3 272004Z 19011KT 31/20 A2978 RMK A01 T03090204  RH  054%=      5-min Rain = 0
KHA3 272005Z 18010KT 31/21 A2978 RMK A01 T03070207  RH  055%=      5-min Rain = 0
KHA3 272006Z 17011KT 31/21 A2978 RMK A01 T03070206  RH  055%=      5-min Rain = 0
KHA3 272007Z 19009KT 31/21 A2978 RMK A01 T03080207  RH  055%=      5-min Rain = 0
KHA3 272008Z 18010KT 31/21 A2977 RMK A01 T03090210  RH  056%=      5-min Rain = 0
KHA3 272009Z 17011KT 31/21 A2977 RMK A01 T03100210  RH  055%=      5-min Rain = 0
KHA3 272010Z 19015KT 31/21 A2977 RMK A01 T03110209  RH  055%=      5-min Rain = 0
KHA3 272011Z 19014KT 31/21 A2977 RMK A01 T03100208  RH  055%=      5-min Rain = 0
KHA3 272012Z 17014KT 31/21 A2977 RMK A01 T03090209  RH  055%=      5-min Rain = 0
KHA3 272013Z 16013KT 31/21 A2977 RMK A01 T03090207  RH  055%=      5-min Rain = 0
KHA3 272014Z 18011KT 31/21 A2977 RMK A01 T03090208  RH  055%=      5-min Rain = 0
KHA3 272015Z 18008KT 31/22 A2977 RMK A01 T03080215  RH  058%=      5-min Rain = 0
KHA3 272016Z 18013KT 31/21 A2977 RMK A01 T03110211  RH  056%=      5-min Rain = 0
KHA3 272017Z 17012KT 31/21 A2977 RMK A01 T03110205  RH  053%=      5-min Rain = 0
KHA3 272018Z 18013KT 31/21 A2977 RMK A01 T03090207  RH  055%=      5-min Rain = 0
KHA3 272019Z 19015KT 31/20 A2977 RMK A01 T03090201  RH  053%=      5-min Rain = 0
KHA3 272020Z 20012KT 31/20 A2977 RMK A01 T03080203  RH  054%=      5-min Rain = 0
KHA3 272021Z 19010KT 31/21 A2977 RMK A01 T03080211  RH  056%=      5-min Rain = 0
KHA3 272022Z 19011KT 31/21 A2977 RMK A01 T03110209  RH  055%=      5-min Rain = 0
KHA3 272023Z 19012KT 31/20 A2977 RMK A01 T03120203  RH  052%=      5-min Rain = 0
KHA3 272024Z 19011KT 31/21 A2977 RMK A01 T03120207  RH  054%=      5-min Rain = 0
KHA3 272025Z 18012KT 31/21 A2977 RMK A01 T03110208  RH  054%=      5-min Rain = 0
KHA3 272026Z 19013KT 31/21 A2976 RMK A01 T03110205  RH  053%=      5-min Rain = 0
KHA3 272027Z 19010KT 31/20 A2976 RMK A01 T03100204  RH  053%=      5-min Rain = 0
KHA3 272028Z 18013KT 31/21 A2976 RMK A01 T03110211  RH  055%=      5-min Rain = 0
KHA3 272029Z 18011KT 31/21 A2976 RMK A01 T03120209  RH  054%=      5-min Rain = 0
KHA3 272030Z 18012KT 31/21 A2976 RMK A01 T03120208  RH  054%=      5-min Rain = 0
KHA3 272031Z 18011KT 31/21 A2976 RMK A01 T03130211  RH  055%=      5-min Rain = 0
KHA3 272032Z 19013KT 31/21 A2976 RMK A01 T03130210  RH  054%=      5-min Rain = 0
KHA3 272033Z 20013KT 31/20 A2976 RMK A01 T03130201  RH  051%=      5-min Rain = 0
KHA3 272034Z 18012KT 31/20 A2976 RMK A01 T03120203  RH  052%=      5-min Rain = 0
KHA3 272035Z 18014KT 31/20 A2976 RMK A01 T03120199  RH  051%=      5-min Rain = 0
KHA3 272036Z 19014KT 31/20 A2976 RMK A01 T03120204  RH  053%=      5-min Rain = 0
KHA3 272037Z 19011KT 31/21 A2976 RMK A01 T03120205  RH  053%=      5-min Rain = 0
KHA3 272038Z 18013KT 31/20 A2976 RMK A01 T03120204  RH  052%=      5-min Rain = 0
KHA3 272039Z 18013KT 31/20 A2976 RMK A01 T03130202  RH  052%=      5-min Rain = 0
KHA3 272040Z 18011KT 31/20 A2975 RMK A01 T03130200  RH  051%=      5-min Rain = 0
KHA3 272041Z 19011KT 31/20 A2975 RMK A01 T03130204  RH  052%=      5-min Rain = 0
KHA3 272042Z 20010KT 31/21 A2975 RMK A01 T03130205  RH  053%=      5-min Rain = 0
KHA3 272043Z 19009KT 31/21 A2975 RMK A01 T03120205  RH  053%=      5-min Rain = 0
KHA3 272044Z 19010KT 31/21 A2975 RMK A01 T03130208  RH  054%=      5-min Rain = 0
KHA3 272045Z 18010KT 31/21 A2975 RMK A01 T03140208  RH  054%=      5-min Rain = 0
KHA3 272046Z 18015KT 32/20 A2975 RMK A01 T03150202  RH  051%=      5-min Rain = 0
KHA3 272047Z 19014KT 31/20 A2975 RMK A01 T03140201  RH  051%=      5-min Rain = 0
KHA3 272048Z 19014KT 31/21 A2975 RMK A01 T03130205  RH  053%=      5-min Rain = 0
KHA3 272049Z 19013KT 31/20 A2975 RMK A01 T03130200  RH  051%=      5-min Rain = 0
KHA3 272050Z 18012KT 31/20 A2975 RMK A01 T03130201  RH  052%=      5-min Rain = 0
KHA3 272051Z 18010KT 31/20 A2975 RMK A01 T03120204  RH  053%=      5-min Rain = 0
KHA3 272052Z 18012KT 31/21 A2975 RMK A01 T03130208  RH  054%=      5-min Rain = 0
KHA3 272053Z 17014KT 31/21 A2975 RMK A01 T03140206  RH  053%=      5-min Rain = 0
KHA3 272054Z 18012KT 32/20 A2975 RMK A01 T03150202  RH  051%=      5-min Rain = 0
KHA3 272055Z 17013KT 32/21 A2975 RMK A01 T03150205  RH  052%=      5-min Rain = 0
KHA3 272056Z 18013KT 32/20 A2975 RMK A01 T03150201  RH  051%=      5-min Rain = 0
KHA3 272057Z 18013KT 32/20 A2975 RMK A01 T03150200  RH  051%=      5-min Rain = 0
KHA3 272058Z 18014KT 31/20 A2975 RMK A01 T03140199  RH  050%=      5-min Rain = 0
KHA3 272059Z 18013KT 32/20 A2975 RMK A01 T03150198  RH  050%=      5-min Rain = 0
KHA3 272100Z 18011KT 31/20 A2974 RMK A01 T03140195  RH  049%=      5-min Rain = 0
KHA3 272101Z 16009KT 31/20 A2974 RMK A01 T03130204  RH  052%=      5-min Rain = 0
KHA3 272102Z 17013KT 32/20 A2974 RMK A01 T03150202  RH  051%=      5-min Rain = 0
KHA3 272103Z 18012KT 32/20 A2974 RMK A01 T03150201  RH  051%=      5-min Rain = 0
KHA3 272104Z 17010KT 32/20 A2974 RMK A01 T03150200  RH  050%=      5-min Rain = 0
KHA3 272105Z 18011G18KT 32/21 A2974 RMK A01 T03150206  RH  052%=      5-min Rain = 0
KHA3 272106Z 16012G18KT 32/20 A2974 RMK A01 T03160198  RH  050%=      5-min Rain = 0
KHA3 272107Z 15012KT 32/20 A2974 RMK A01 T03160203  RH  051%=      5-min Rain = 0
KHA3 272108Z 16013KT 32/21 A2974 RMK A01 T03150205  RH  052%=      5-min Rain = 0
KHA3 272109Z 16014KT 32/20 A2974 RMK A01 T03150202  RH  051%=      5-min Rain = 0
KHA3 272110Z 16012KT 32/21 A2974 RMK A01 T03150206  RH  052%=      5-min Rain = 0
KHA3 272111Z 17014KT 32/21 A2974 RMK A01 T03150205  RH  052%=      5-min Rain = 0
KHA3 272112Z 17013KT 32/20 A2974 RMK A01 T03160203  RH  051%=      5-min Rain = 0
KHA3 272113Z 16010KT 32/21 A2974 RMK A01 T03160205  RH  052%=      5-min Rain = 0
KHA3 272114Z 17011KT 32/21 A2974 RMK A01 T03160206  RH  052%=      5-min Rain = 0
KHA3 272115Z 16012KT 32/21 A2974 RMK A01 T03160206  RH  052%=      5-min Rain = 0
KHA3 272116Z 17013KT 32/21 A2974 RMK A01 T03160207  RH  052%=      5-min Rain = 0
KHA3 272117Z 17015KT 32/21 A2973 RMK A01 T03160205  RH  052%=      5-min Rain = 0
KHA3 272118Z 17015KT 32/20 A2973 RMK A01 T03160204  RH  051%=      5-min Rain = 0
KHA3 272119Z 16012KT 32/21 A2973 RMK A01 T03150207  RH  053%=      5-min Rain = 0
KHA3 272120Z 16013KT 32/21 A2973 RMK A01 T03150206  RH  052%=      5-min Rain = 0
KHA3 272121Z 16013KT 32/20 A2973 RMK A01 T03160204  RH  052%=      5-min Rain = 0
KHA3 272122Z 16013KT 32/21 A2973 RMK A01 T03160208  RH  053%=      5-min Rain = 0
KHA3 272123Z 17015KT 32/21 A2973 RMK A01 T03160207  RH  053%=      5-min Rain = 0
KHA3 272124Z 17015KT 32/20 A2973 RMK A01 T03160204  RH  052%=      5-min Rain = 0
KHA3 272125Z 17013KT 32/21 A2973 RMK A01 T03150205  RH  052%=      5-min Rain = 0
KHA3 272126Z 15012KT 31/21 A2973 RMK A01 T03140206  RH  053%=      5-min Rain = 0
KHA3 272127Z 15012KT 31/21 A2973 RMK A01 T03140207  RH  053%=      5-min Rain = 0
KHA3 272128Z 16015KT 31/21 A2973 RMK A01 T03140208  RH  053%=      5-min Rain = 0
KHA3 272129Z 17016KT 32/21 A2973 RMK A01 T03150205  RH  052%=      5-min Rain = 0
KHA3 272130Z 18014KT 32/21 A2973 RMK A01 T03150209  RH  053%=      5-min Rain = 0
KHA3 272131Z 18016KT 32/21 A2972 RMK A01 T03160205  RH  052%=      5-min Rain = 0
KHA3 272132Z 18011KT 32/21 A2973 RMK A01 T03160208  RH  053%=      5-min Rain = 0
KHA3 272133Z 18014KT 32/21 A2972 RMK A01 T03150208  RH  053%=      5-min Rain = 0
KHA3 272134Z 18012KT 32/21 A2972 RMK A01 T03160209  RH  053%=      5-min Rain = 0
KHA3 272135Z 17011KT 32/21 A2972 RMK A01 T03170207  RH  052%=      5-min Rain = 0
KHA3 272136Z 17010KT 32/21 A2972 RMK A01 T03180209  RH  053%=      5-min Rain = 0
KHA3 272137Z 17010KT 32/21 A2972 RMK A01 T03190210  RH  053%=      5-min Rain = 0
KHA3 272138Z 18012KT 32/21 A2972 RMK A01 T03180209  RH  053%=      5-min Rain = 0
KHA3 272139Z 16009KT 32/21 A2972 RMK A01 T03180208  RH  052%=      5-min Rain = 0
KHA3 272140Z 15013KT 32/21 A2972 RMK A01 T03170211  RH  054%=      5-min Rain = 0
KHA3 272141Z 17011KT 32/21 A2972 RMK A01 T03180211  RH  053%=      5-min Rain = 0
KHA3 272142Z 16010KT 32/21 A2972 RMK A01 T03190213  RH  054%=      5-min Rain = 0
KHA3 272143Z 16011KT 32/21 A2972 RMK A01 T03210212  RH  053%=      5-min Rain = 0
KHA3 272144Z 15012KT 32/21 A2972 RMK A01 T03210208  RH  051%=      5-min Rain = 0
KHA3 272145Z 16013KT 32/21 A2972 RMK A01 T03210208  RH  052%=      5-min Rain = 0
KHA3 272146Z 16016KT 32/21 A2972 RMK A01 T03200205  RH  051%=      5-min Rain = 0
KHA3 272147Z 16015KT 32/20 A2972 RMK A01 T03190199  RH  049%=      5-min Rain = 0
KHA3 272148Z 17013KT 32/20 A2972 RMK A01 T03170198  RH  049%=      5-min Rain = 0
KHA3 272149Z 17011KT 32/20 A2972 RMK A01 T03160203  RH  051%=      5-min Rain = 0
KHA3 272150Z 18014KT 32/20 A2972 RMK A01 T03170202  RH  051%=      5-min Rain = 0
KHA3 272151Z 18012KT 32/21 A2972 RMK A01 T03180207  RH  052%=      5-min Rain = 0
KHA3 272152Z 17012KT 32/20 A2972 RMK A01 T03180204  RH  051%=      5-min Rain = 0
KHA3 272153Z 16011KT 32/20 A2972 RMK A01 T03180203  RH  051%=      5-min Rain = 0
KHA3 272154Z 16010KT 32/21 A2972 RMK A01 T03170209  RH  053%=      5-min Rain = 0
KHA3 272155Z 16010KT 32/21 A2971 RMK A01 T03180209  RH  053%=      5-min Rain = 0
KHA3 272156Z 18010KT 32/21 A2971 RMK A01 T03180209  RH  052%=      5-min Rain = 0
KHA3 272157Z 16014KT 32/21 A2971 RMK A01 T03190209  RH  052%=      5-min Rain = 0
KHA3 272158Z 15014KT 32/20 A2971 RMK A01 T03190203  RH  050%=      5-min Rain = 0
KHA3 272159Z 15014KT 32/21 A2971 RMK A01 T03180205  RH  051%=      5-min Rain = 0
KHA3 272200Z 14013KT 32/21 A2971 RMK A01 T03170206  RH  052%=      5-min Rain = 0
KHA3 272201Z 15011KT 32/21 A2971 RMK A01 T03160206  RH  052%=      5-min Rain = 0
KHA3 272202Z 14013KT 32/21 A2971 RMK A01 T03160207  RH  052%=      5-min Rain = 0
KHA3 272203Z 15015KT 32/20 A2971 RMK A01 T03170204  RH  051%=      5-min Rain = 0
KHA3 272204Z 15014KT 32/21 A2971 RMK A01 T03160205  RH  052%=      5-min Rain = 0
KHA3 272205Z 14018KT 32/20 A2971 RMK A01 T03160202  RH  051%=      5-min Rain = 0
KHA3 272206Z 15018G23KT 32/20 A2971 RMK A01 T03150201  RH  051%=      5-min Rain = 0
KHA3 272207Z 16017KT 31/20 A2971 RMK A01 T03140199  RH  050%=      5-min Rain = 0
KHA3 272208Z 16016KT 31/20 A2971 RMK A01 T03140201  RH  051%=      5-min Rain = 0
KHA3 272209Z 16014KT 31/20 A2971 RMK A01 T03140201  RH  051%=      5-min Rain = 0
KHA3 272210Z 15013KT 32/20 A2971 RMK A01 T03150204  RH  052%=      5-min Rain = 0
KHA3 272211Z 16014KT 32/20 A2971 RMK A01 T03160203  RH  051%=      5-min Rain = 0
KHA3 272212Z 15014KT 32/20 A2971 RMK A01 T03160202  RH  051%=      5-min Rain = 0
KHA3 272213Z 14015KT 32/20 A2971 RMK A01 T03160204  RH  051%=      5-min Rain = 0
KHA3 272214Z 16014KT 32/21 A2971 RMK A01 T03160205  RH  052%=      5-min Rain = 0
KHA3 272215Z 15017KT 32/20 A2971 RMK A01 T03160203  RH  051%=      5-min Rain = 0
KHA3 272216Z 16015KT 32/20 A2971 RMK A01 T03160201  RH  051%=      5-min Rain = 0
KHA3 272217Z 17014KT 32/20 A297 RMK A01 T03160200  RH  050%=      5-min Rain = 0
KHA3 272218Z 17014KT 32/20 A297 RMK A01 T03160201  RH  051%=      5-min Rain = 0
KHA3 272219Z 16013KT 32/20 A297 RMK A01 T03160204  RH  051%=      5-min Rain = 0
KHA3 272220Z 16014KT 32/21 A297 RMK A01 T03160208  RH  053%=      5-min Rain = 0
KHA3 272221Z 15015KT 32/21 A297 RMK A01 T03160205  RH  052%=      5-min Rain = 0
KHA3 272222Z 16015G20KT 32/21 A297 RMK A01 T03150209  RH  053%=      5-min Rain = 0
KHA3 272223Z 15016KT 32/21 A297 RMK A01 T03150206  RH  052%=      5-min Rain = 0
KHA3 272224Z 15015KT 32/21 A297 RMK A01 T03150207  RH  053%=      5-min Rain = 0
KHA3 272225Z 15016KT 32/21 A297 RMK A01 T03150205  RH  052%=      5-min Rain = 0
KHA3 272226Z 16017KT 32/20 A297 RMK A01 T03150204  RH  052%=      5-min Rain = 0
KHA3 272227Z 14017KT 31/20 A297 RMK A01 T03140202  RH  051%=      5-min Rain = 0
KHA3 272228Z 14017KT 31/20 A297 RMK A01 T03130200  RH  051%=      5-min Rain = 0
KHA3 272229Z 14014KT 31/20 A297 RMK A01 T03120198  RH  051%=      5-min Rain = 0
KHA3 272230Z 16014KT 31/20 A297 RMK A01 T03110202  RH  052%=      5-min Rain = 0
KHA3 272231Z 17014KT 31/20 A297 RMK A01 T03120203  RH  052%=      5-min Rain = 0
KHA3 272232Z 17015KT 31/20 A297 RMK A01 T03130201  RH  051%=      5-min Rain = 0
KHA3 272233Z 18016KT 31/20 A297 RMK A01 T03130202  RH  052%=      5-min Rain = 0
KHA3 272234Z 18015KT 31/20 A297 RMK A01 T03130203  RH  052%=      5-min Rain = 0
KHA3 272235Z 16012KT 31/21 A297 RMK A01 T03130207  RH  053%=      5-min Rain = 0
KHA3 272236Z 16010KT 31/21 A297 RMK A01 T03140207  RH  053%=      5-min Rain = 0
KHA3 272237Z 16013KT 32/21 A297 RMK A01 T03150209  RH  053%=      5-min Rain = 0
KHA3 272238Z 16012G18KT 32/21 A297 RMK A01 T03150209  RH  053%=      5-min Rain = 0
KHA3 272239Z 17017KT 32/21 A297 RMK A01 T03160207  RH  053%=      5-min Rain = 0
KHA3 272240Z 17016KT 32/20 A297 RMK A01 T03150201  RH  051%=      5-min Rain = 0
KHA3 272241Z 15015KT 31/20 A297 RMK A01 T03130202  RH  051%=      5-min Rain = 0
KHA3 272242Z 15015KT 31/20 A297 RMK A01 T03130201  RH  052%=      5-min Rain = 0
KHA3 272243Z 14014KT 31/20 A297 RMK A01 T03120202  RH  052%=      5-min Rain = 0
KHA3 272244Z 16014KT 31/20 A297 RMK A01 T03120202  RH  052%=      5-min Rain = 0
KHA3 272245Z 15014KT 31/20 A297 RMK A01 T03120199  RH  051%=      5-min Rain = 0
KHA3 272246Z 14014KT 31/20 A297 RMK A01 T03130201  RH  051%=      5-min Rain = 0
KHA3 272247Z 13013G18KT 31/20 A297 RMK A01 T03130199  RH  051%=      5-min Rain = 0
KHA3 272248Z 14014G19KT 31/20 A297 RMK A01 T03120199  RH  051%=      5-min Rain = 0
KHA3 272249Z 15013KT 31/20 A297 RMK A01 T03120201  RH  052%=      5-min Rain = 0
KHA3 272250Z 15014KT 31/20 A297 RMK A01 T03120203  RH  052%=      5-min Rain = 0
KHA3 272251Z 14017KT 31/20 A2969 RMK A01 T03120200  RH  051%=      5-min Rain = 0
KHA3 272252Z 14015KT 31/20 A2969 RMK A01 T03130200  RH  051%=      5-min Rain = 0
KHA3 272253Z 14015KT 31/20 A2969 RMK A01 T03120199  RH  051%=      5-min Rain = 0
KHA3 272254Z 15015KT 31/20 A2969 RMK A01 T03120200  RH  051%=      5-min Rain = 0
KHA3 272255Z 15016KT 31/20 A2969 RMK A01 T03120200  RH  052%=      5-min Rain = 0
KHA3 272256Z 17015KT 31/20 A2969 RMK A01 T03120199  RH  051%=      5-min Rain = 0
KHA3 272257Z 16012KT 31/20 A2969 RMK A01 T03120200  RH  052%=      5-min Rain = 0
KHA3 272258Z 17015KT 31/20 A2969 RMK A01 T03120201  RH  052%=      5-min Rain = 0
KHA3 272259Z 16015KT 31/20 A2969 RMK A01 T03120199  RH  051%=      5-min Rain = 0
KHA3 272300Z 15017KT 31/20 A2969 RMK A01 T03130200  RH  051%=      5-min Rain = 0
KHA3 272301Z 15017KT 31/20 A2969 RMK A01 T03130197  RH  050%=      5-min Rain = 0
KHA3 272302Z 15017KT 31/20 A2969 RMK A01 T03120197  RH  050%=      5-min Rain = 0
KHA3 272303Z 16016KT 31/20 A2969 RMK A01 T03110199  RH  051%=      5-min Rain = 0
KHA3 272304Z 16015KT 31/20 A2969 RMK A01 T03110198  RH  051%=      5-min Rain = 0
KHA3 272305Z 15014KT 31/20 A2969 RMK A01 T03110200  RH  052%=      5-min Rain = 0
KHA3 272306Z 15014KT 31/20 A2969 RMK A01 T03110199  RH  051%=      5-min Rain = 0
KHA3 272307Z 16012KT 31/20 A2969 RMK A01 T03110200  RH  052%=      5-min Rain = 0
KHA3 272308Z 16012KT 31/20 A2969 RMK A01 T03110201  RH  052%=      5-min Rain = 0
KHA3 272309Z 16009KT 31/21 A2969 RMK A01 T03120206  RH  054%=      5-min Rain = 0
KHA3 272310Z 16010KT 31/21 A2969 RMK A01 T03130206  RH  053%=      5-min Rain = 0
KHA3 272311Z 16015KT 31/21 A2969 RMK A01 T03130205  RH  053%=      5-min Rain = 0
KHA3 272312Z 16014KT 31/20 A2969 RMK A01 T03130202  RH  052%=      5-min Rain = 0
KHA3 272313Z 16015KT 31/20 A2969 RMK A01 T03130201  RH  051%=      5-min Rain = 0
KHA3 272314Z 16015KT 31/20 A2969 RMK A01 T03130201  RH  051%=      5-min Rain = 0
KHA3 272315Z 16013KT 31/20 A2969 RMK A01 T03120202  RH  052%=      5-min Rain = 0
KHA3 272316Z 16010G15KT 31/21 A2969 RMK A01 T03120205  RH  053%=      5-min Rain = 0
KHA3 272317Z 16013KT 31/20 A2969 RMK A01 T03120201  RH  051%=      5-min Rain = 0
KHA3 272318Z 16014KT 31/20 A2969 RMK A01 T03120204  RH  052%=      5-min Rain = 0
KHA3 272319Z 14012G18KT 31/21 A2969 RMK A01 T03120205  RH  053%=      5-min Rain = 0
KHA3 272320Z 14018KT 31/20 A2969 RMK A01 T03120202  RH  052%=      5-min Rain = 0
KHA3 272321Z 15017KT 31/20 A2969 RMK A01 T03120200  RH  052%=      5-min Rain = 0
KHA3 272322Z 15017KT 31/20 A2969 RMK A01 T03110199  RH  051%=      5-min Rain = 0
KHA3 272323Z 15016KT 31/20 A2969 RMK A01 T03110200  RH  052%=      5-min Rain = 0
KHA3 272324Z 16013KT 31/20 A2969 RMK A01 T03100199  RH  052%=      5-min Rain = 0
KHA3 272325Z 15014KT 31/20 A2969 RMK A01 T03100200  RH  052%=      5-min Rain = 0
KHA3 272326Z 15015G21KT 31/20 A2969 RMK A01 T03110199  RH  051%=      5-min Rain = 0
KHA3 272327Z 16013KT 31/20 A2969 RMK A01 T03110203  RH  053%=      5-min Rain = 0
KHA3 272328Z 17014KT 31/21 A2969 RMK A01 T03110206  RH  054%=      5-min Rain = 0
KHA3 272329Z 16015G20KT 31/20 A2969 RMK A01 T03110202  RH  052%=      5-min Rain = 0
KHA3 272330Z 16017KT 31/20 A2969 RMK A01 T03110200  RH  052%=      5-min Rain = 0
KHA3 272331Z 16016KT 31/20 A2969 RMK A01 T03110201  RH  052%=      5-min Rain = 0
KHA3 272332Z 16013KT 31/20 A2969 RMK A01 T03110202  RH  052%=      5-min Rain = 0
KHA3 272333Z 16012KT 31/21 A2969 RMK A01 T03110206  RH  054%=      5-min Rain = 0
KHA3 272334Z 15016KT 31/20 A2969 RMK A01 T03110203  RH  053%=      5-min Rain = 0
KHA3 272335Z 16015KT 31/20 A2969 RMK A01 T03110200  RH  052%=      5-min Rain = 0
KHA3 272336Z 16014KT 31/20 A2969 RMK A01 T03100201  RH  052%=      5-min Rain = 0
KHA3 272337Z 17016KT 31/20 A2969 RMK A01 T03100201  RH  052%=      5-min Rain = 0
KHA3 272338Z 16017KT 31/20 A2969 RMK A01 T03100200  RH  052%=      5-min Rain = 0
KHA3 272339Z 16018G23KT 31/20 A2969 RMK A01 T03100200  RH  052%=      5-min Rain = 0
KHA3 272340Z 17016KT 31/20 A2969 RMK A01 T03100199  RH  052%=      5-min Rain = 0
KHA3 272341Z 17014G19KT 31/20 A2969 RMK A01 T03100203  RH  053%=      5-min Rain = 0
KHA3 272342Z 16017KT 31/20 A2969 RMK A01 T03100202  RH  053%=      5-min Rain = 0
KHA3 272343Z 17018KT 31/20 A2968 RMK A01 T03100201  RH  052%=      5-min Rain = 0
KHA3 272344Z 16017KT 31/20 A2969 RMK A01 T03090201  RH  052%=      5-min Rain = 0
KHA3 272345Z 16014KT 31/20 A2969 RMK A01 T03090200  RH  052%=      5-min Rain = 0
KHA3 272346Z 16013KT 31/20 A2969 RMK A01 T03090202  RH  053%=      5-min Rain = 0
KHA3 272347Z 16013KT 31/20 A2969 RMK A01 T03080200  RH  053%=      5-min Rain = 0
KHA3 272348Z 16014KT 31/20 A2969 RMK A01 T03080201  RH  053%=      5-min Rain = 0
KHA3 272349Z 16017KT 31/20 A2969 RMK A01 T03070199  RH  053%=      5-min Rain = 0
KHA3 272350Z 17017KT 31/20 A2969 RMK A01 T03070198  RH  052%=      5-min Rain = 0
KHA3 272351Z 17016KT 31/20 A2969 RMK A01 T03060200  RH  053%=      5-min Rain = 0
KHA3 272352Z 17013KT 31/20 A2969 RMK A01 T03060202  RH  054%=      5-min Rain = 0
KHA3 272353Z 17013KT 31/20 A2969 RMK A01 T03060203  RH  054%=      5-min Rain = 0
KHA3 272354Z 17012KT 31/21 A2968 RMK A01 T03060205  RH  055%=      5-min Rain = 0
KHA3 272355Z 17013KT 31/20 A2968 RMK A01 T03060204  RH  055%=      5-min Rain = 0
KHA3 272356Z 16015KT 31/20 A2968 RMK A01 T03060202  RH  054%=      5-min Rain = 0
KHA3 272357Z 17014KT 31/20 A2968 RMK A01 T03060203  RH  054%=      5-min Rain = 0
KHA3 272358Z 17014KT 31/20 A2968 RMK A01 T03070203  RH  054%=      5-min Rain = 0
KHA3 272359Z 17012KT 31/21 A2968 RMK A01 T03070205  RH  054%=      5-min Rain = 0
KHA3 280000Z 17013KT 31/21 A2968 RMK A01 T03070205  RH  055%=      5-min Rain = 0
KHA3 280001Z 17014KT 31/20 A2968 RMK A01 T03060204  RH  054%=      5-min Rain = 0
KHA3 280002Z 17012KT 31/20 A2968 RMK A01 T03060203  RH  054%=      5-min Rain = 0
KHA3 280003Z 16013KT 31/21 A2968 RMK A01 T03050205  RH  055%=      5-min Rain = 0
KHA3 280004Z 16012KT 30/21 A2968 RMK A01 T03040205  RH  056%=      5-min Rain = 0
KHA3 280005Z 15012KT 30/21 A2968 RMK A01 T03030206  RH  056%=      5-min Rain = 0
KHA3 280006Z 15012KT 30/21 A2968 RMK A01 T03020206  RH  057%=      5-min Rain = 0
KHA3 280007Z 15014KT 30/21 A2968 RMK A01 T03010205  RH  056%=      5-min Rain = 0
KHA3 280008Z 15012KT 30/21 A2968 RMK A01 T03020206  RH  057%=      5-min Rain = 0
KHA3 280009Z 16011KT 30/21 A2968 RMK A01 T03020207  RH  057%=      5-min Rain = 0
KHA3 280010Z 14013KT 30/21 A2968 RMK A01 T03020206  RH  056%=      5-min Rain = 0
KHA3 280011Z 15013KT 30/21 A2968 RMK A01 T03030207  RH  057%=      5-min Rain = 0
KHA3 280012Z 15013G18KT 30/21 A2968 RMK A01 T03030208  RH  057%=      5-min Rain = 0
KHA3 280013Z 14016KT 30/21 A2968 RMK A01 T03030206  RH  056%=      5-min Rain = 0
KHA3 280014Z 15014KT 30/21 A2968 RMK A01 T03030206  RH  056%=      5-min Rain = 0
KHA3 280015Z 15017KT 30/21 A2968 RMK A01 T03030205  RH  056%=      5-min Rain = 0
KHA3 280016Z 15015KT 30/21 A2968 RMK A01 T03030206  RH  056%=      5-min Rain = 0
KHA3 280017Z 15015G20KT 30/21 A2968 RMK A01 T03030206  RH  056%=      5-min Rain = 0
KHA3 280018Z 15017KT 30/20 A2968 RMK A01 T03030204  RH  056%=      5-min Rain = 0
KHA3 280019Z 14015KT 30/20 A2968 RMK A01 T03010204  RH  056%=      5-min Rain = 0
KHA3 280020Z 15014KT 30/21 A2968 RMK A01 T03010206  RH  057%=      5-min Rain = 0
KHA3 280021Z 15012KT 30/21 A2968 RMK A01 T02990206  RH  058%=      5-min Rain = 0
KHA3 280022Z 15017KT 30/21 A2968 RMK A01 T02970206  RH  058%=      5-min Rain = 0
KHA3 280023Z 16016KT 30/21 A2968 RMK A01 T02960205  RH  058%=      5-min Rain = 0
KHA3 280024Z 15014KT 30/21 A2968 RMK A01 T02960206  RH  058%=      5-min Rain = 0
KHA3 280025Z 15015KT 30/21 A2968 RMK A01 T02950206  RH  059%=      5-min Rain = 0
KHA3 280026Z 15016KT 29/20 A2968 RMK A01 T02940204  RH  058%=      5-min Rain = 0
KHA3 280027Z 15013G18KT 29/21 A2968 RMK A01 T02930205  RH  059%=      5-min Rain = 0
KHA3 280028Z 15012KT 29/21 A2968 RMK A01 T02930207  RH  059%=      5-min Rain = 0
KHA3 280029Z 15012G18KT 29/21 A2968 RMK A01 T02930206  RH  059%=      5-min Rain = 0
KHA3 280030Z 15014KT 29/21 A2968 RMK A01 T02930205  RH  059%=      5-min Rain = 0
KHA3 280031Z 15016KT 29/20 A2968 RMK A01 T02940204  RH  058%=      5-min Rain = 0
KHA3 280032Z 15013G18KT 30/20 A2968 RMK A01 T02950204  RH  058%=      5-min Rain = 0
KHA3 280033Z 14014KT 30/20 A2968 RMK A01 T02950204  RH  058%=      5-min Rain = 0
KHA3 280034Z 15016KT 30/20 A2968 RMK A01 T02950204  RH  058%=      5-min Rain = 0
KHA3 280035Z 14015KT 30/20 A2968 RMK A01 T02960204  RH  058%=      5-min Rain = 0
KHA3 280036Z 14014KT 30/20 A2968 RMK A01 T02960204  RH  058%=      5-min Rain = 0
KHA3 280037Z 14013KT 30/20 A2968 RMK A01 T02960204  RH  058%=      5-min Rain = 0
KHA3 280038Z 14014KT 30/21 A2968 RMK A01 T02960205  RH  058%=      5-min Rain = 0
KHA3 280039Z 14017KT 30/21 A2968 RMK A01 T02960205  RH  058%=      5-min Rain = 0
KHA3 280040Z 15017KT 30/20 A2968 RMK A01 T02960204  RH  058%=      5-min Rain = 0
KHA3 280041Z 15015KT 30/21 A2968 RMK A01 T02960205  RH  058%=      5-min Rain = 0
KHA3 280042Z 15014KT 30/21 A2968 RMK A01 T02950205  RH  058%=      5-min Rain = 0
KHA3 280043Z 15012KT 29/21 A2968 RMK A01 T02940206  RH  059%=      5-min Rain = 0
KHA3 280044Z 15013KT 29/21 A2968 RMK A01 T02940206  RH  059%=      5-min Rain = 0
KHA3 280045Z 15014G21KT 29/21 A2968 RMK A01 T02930205  RH  059%=      5-min Rain = 0
KHA3 280046Z 15018KT 29/20 A2968 RMK A01 T02930204  RH  059%=      5-min Rain = 0
KHA3 280047Z 15017KT 29/20 A2968 RMK A01 T02920203  RH  059%=      5-min Rain = 0
KHA3 280048Z 15015KT 29/20 A2968 RMK A01 T02930203  RH  058%=      5-min Rain = 0
KHA3 280049Z 14015KT 29/20 A2968 RMK A01 T02930204  RH  059%=      5-min Rain = 0
KHA3 280050Z 15015KT 29/20 A2968 RMK A01 T02920204  RH  059%=      5-min Rain = 0
KHA3 280051Z 15015KT 29/20 A2968 RMK A01 T02920204  RH  059%=      5-min Rain = 0
KHA3 280052Z 15015KT 29/20 A2968 RMK A01 T02920204  RH  059%=      5-min Rain = 0
KHA3 280053Z 15014KT 29/20 A2968 RMK A01 T02910204  RH  060%=      5-min Rain = 0
KHA3 280054Z 15011KT 29/21 A2968 RMK A01 T02910205  RH  060%=      5-min Rain = 0
KHA3 280055Z 15012KT 29/21 A2968 RMK A01 T02900206  RH  061%=      5-min Rain = 0
KHA3 280056Z 15016KT 29/20 A2968 RMK A01 T02890204  RH  060%=      5-min Rain = 0
KHA3 280057Z 15015G20KT 29/20 A2968 RMK A01 T02890203  RH  060%=      5-min Rain = 0
KHA3 280058Z 16013KT 29/20 A2968 RMK A01 T02890204  RH  060%=      5-min Rain = 0
KHA3 280059Z 15014KT 29/21 A2968 RMK A01 T02890205  RH  060%=      5-min Rain = 0
KHA3 280100Z 15014KT 29/20 A2968 RMK A01 T02880204  RH  061%=      5-min Rain = 0
KHA3 280101Z 15013KT 29/20 A2968 RMK A01 T02870204  RH  061%=      5-min Rain = 0
KHA3 280102Z 15012KT 29/21 A2968 RMK A01 T02870205  RH  061%=      5-min Rain = 0
KHA3 280103Z 15011KT 29/20 A2968 RMK A01 T02860204  RH  061%=      5-min Rain = 0
KHA3 280104Z 15013KT 29/21 A2968 RMK A01 T02860205  RH  062%=      5-min Rain = 0
KHA3 280105Z 15014KT 29/20 A2968 RMK A01 T02850203  RH  061%=      5-min Rain = 0
KHA3 280106Z 15015KT 29/20 A2968 RMK A01 T02850204  RH  061%=      5-min Rain = 0
KHA3 280107Z 14012KT 29/20 A2968 RMK A01 T02860203  RH  061%=      5-min Rain = 0
KHA3 280108Z 15014KT 29/20 A2968 RMK A01 T02860203  RH  061%=      5-min Rain = 0
KHA3 280109Z 15014KT 29/20 A2968 RMK A01 T02860204  RH  061%=      5-min Rain = 0
KHA3 280110Z 14014KT 29/20 A2967 RMK A01 T02860203  RH  061%=      5-min Rain = 0
KHA3 280111Z 15015G21KT 29/20 A2967 RMK A01 T02860204  RH  061%=      5-min Rain = 0
KHA3 280112Z 15015G20KT 29/20 A2967 RMK A01 T02860203  RH  061%=      5-min Rain = 0
KHA3 280113Z 15014G19KT 29/20 A2968 RMK A01 T02850203  RH  061%=      5-min Rain = 0
KHA3 280114Z 15013KT 29/20 A2968 RMK A01 T02850204  RH  062%=      5-min Rain = 0
KHA3 280115Z 15011KT 28/20 A2968 RMK A01 T02840204  RH  062%=      5-min Rain = 0
KHA3 280116Z 15011KT 28/21 A2968 RMK A01 T02830205  RH  062%=      5-min Rain = 0
KHA3 280117Z 15012KT 28/20 A2968 RMK A01 T02820204  RH  063%=      5-min Rain = 0
KHA3 280118Z 14012KT 28/20 A2968 RMK A01 T02820204  RH  063%=      5-min Rain = 0
KHA3 280119Z 15014KT 28/20 A2968 RMK A01 T02810203  RH  062%=      5-min Rain = 0
KHA3 280120Z 15013KT 28/20 A2968 RMK A01 T02820203  RH  062%=      5-min Rain = 0
KHA3 280121Z 15013G18KT 28/20 A2968 RMK A01 T02820203  RH  062%=      5-min Rain = 0
KHA3 280122Z 15014KT 28/20 A2968 RMK A01 T02820203  RH  062%=      5-min Rain = 0
KHA3 280123Z 15011KT 28/20 A2968 RMK A01 T02820204  RH  063%=      5-min Rain = 0
KHA3 280124Z 15014KT 28/20 A2968 RMK A01 T02810203  RH  063%=      5-min Rain = 0
KHA3 280125Z 15012KT 28/20 A2968 RMK A01 T02810203  RH  063%=      5-min Rain = 0
KHA3 280126Z 15011KT 28/20 A2968 RMK A01 T02810204  RH  063%=      5-min Rain = 0
KHA3 280127Z 15013KT 28/20 A2968 RMK A01 T02800203  RH  063%=      5-min Rain = 0
KHA3 280128Z 15012KT 28/20 A2968 RMK A01 T02790203  RH  063%=      5-min Rain = 0
KHA3 280129Z 15012KT 28/20 A2968 RMK A01 T02790203  RH  063%=      5-min Rain = 0
KHA3 280130Z 15013KT 28/20 A2968 RMK A01 T02790202  RH  063%=      5-min Rain = 0
KHA3 280131Z 15015KT 28/20 A2968 RMK A01 T02790201  RH  063%=      5-min Rain = 0
KHA3 280132Z 15014KT 28/20 A2968 RMK A01 T02800202  RH  063%=      5-min Rain = 0
KHA3 280133Z 15013KT 28/20 A2968 RMK A01 T02800202  RH  063%=      5-min Rain = 0
KHA3 280134Z 14013KT 28/20 A2968 RMK A01 T02800203  RH  063%=      5-min Rain = 0
KHA3 280135Z 14013KT 28/20 A2968 RMK A01 T02790202  RH  063%=      5-min Rain = 0
KHA3 280136Z 15014G19KT 28/20 A2968 RMK A01 T02780201  RH  063%=      5-min Rain = 0
KHA3 280137Z 14014KT 28/20 A2968 RMK A01 T02780201  RH  063%=      5-min Rain = 0
KHA3 280138Z 15013KT 28/20 A2968 RMK A01 T02780201  RH  063%=      5-min Rain = 0
KHA3 280139Z 15014KT 28/20 A2968 RMK A01 T02780202  RH  063%=      5-min Rain = 0
KHA3 280140Z 14015KT 28/20 A2968 RMK A01 T02780201  RH  063%=      5-min Rain = 0
KHA3 280141Z 15015KT 28/20 A2968 RMK A01 T02780200  RH  063%=      5-min Rain = 0
KHA3 280142Z 14015KT 28/20 A2968 RMK A01 T02780200  RH  063%=      5-min Rain = 0
KHA3 280143Z 14014KT 28/20 A2968 RMK A01 T02780200  RH  063%=      5-min Rain = 0
KHA3 280144Z 14014KT 28/20 A2968 RMK A01 T02770200  RH  063%=      5-min Rain = 0
KHA3 280145Z 14013KT 28/20 A2968 RMK A01 T02780200  RH  063%=      5-min Rain = 0
KHA3 280146Z 14016KT 28/20 A2968 RMK A01 T02770199  RH  063%=      5-min Rain = 0
KHA3 280147Z 14014KT 28/20 A2968 RMK A01 T02770199  RH  062%=      5-min Rain = 0
KHA3 280148Z 14014KT 28/20 A2968 RMK A01 T02770199  RH  063%=      5-min Rain = 0
KHA3 280149Z 14016KT 28/20 A2968 RMK A01 T02760199  RH  063%=      5-min Rain = 0
KHA3 280150Z 15016KT 28/20 A2967 RMK A01 T02760198  RH  063%=      5-min Rain = 0
KHA3 280151Z 14016KT 28/20 A2968 RMK A01 T02760198  RH  062%=      5-min Rain = 0
KHA3 280152Z 14014KT 28/20 A2968 RMK A01 T02760198  RH  062%=      5-min Rain = 0
KHA3 280153Z 14013G18KT 28/20 A2968 RMK A01 T02770199  RH  062%=      5-min Rain = 0
KHA3 280154Z 14013KT 28/20 A2968 RMK A01 T02760198  RH  062%=      5-min Rain = 0
KHA3 280155Z 14012KT 28/20 A2968 RMK A01 T02750198  RH  063%=      5-min Rain = 0
KHA3 280156Z 14012KT 28/20 A2968 RMK A01 T02750198  RH  063%=      5-min Rain = 0
KHA3 280157Z 14011KT 27/20 A2968 RMK A01 T02740198  RH  063%=      5-min Rain = 0
KHA3 280158Z 14013G18KT 27/20 A2968 RMK A01 T02740199  RH  064%=      5-min Rain = 0
KHA3 280159Z 14013KT 27/20 A2968 RMK A01 T02720198  RH  064%=      5-min Rain = 0
KHA3 280200Z 14014KT 27/20 A2968 RMK A01 T02720198  RH  064%=      5-min Rain = 0
KHA3 280201Z 15012KT 27/20 A2968 RMK A01 T02720197  RH  064%=      5-min Rain = 0
KHA3 280202Z 14016KT 27/20 A2968 RMK A01 T02720197  RH  063%=      5-min Rain = 0
KHA3 280203Z 14012KT 27/20 A2968 RMK A01 T02730197  RH  063%=      5-min Rain = 0
KHA3 280204Z 14012KT 27/20 A2968 RMK A01 T02730198  RH  064%=      5-min Rain = 0
KHA3 280205Z 14012KT 27/20 A2968 RMK A01 T02720198  RH  064%=      5-min Rain = 0
KHA3 280206Z 14013KT 27/20 A2968 RMK A01 T02710198  RH  064%=      5-min Rain = 0
KHA3 280207Z 14014KT 27/20 A2968 RMK A01 T02700197  RH  064%=      5-min Rain = 0
KHA3 280208Z 14013KT 27/20 A2968 RMK A01 T02710197  RH  064%=      5-min Rain = 0
KHA3 280209Z 14014KT 27/20 A2968 RMK A01 T02700197  RH  064%=      5-min Rain = 0
KHA3 280210Z 14012KT 27/20 A2968 RMK A01 T02710197  RH  064%=      5-min Rain = 0
KHA3 280211Z 14014KT 27/20 A2968 RMK A01 T02700196  RH  064%=      5-min Rain = 0
KHA3 280212Z 13012KT 27/20 A2968 RMK A01 T02700196  RH  064%=      5-min Rain = 0
KHA3 280213Z 14013KT 27/20 A2968 RMK A01 T02700197  RH  064%=      5-min Rain = 0
KHA3 280214Z 14013G18KT 27/20 A2968 RMK A01 T02700197  RH  064%=      5-min Rain = 0
KHA3 280215Z 14013KT 27/20 A2968 RMK A01 T02690196  RH  064%=      5-min Rain = 0
KHA3 280216Z 14012KT 27/20 A2968 RMK A01 T02690197  RH  065%=      5-min Rain = 0
KHA3 280217Z 14014KT 27/20 A2968 RMK A01 T02690197  RH  065%=      5-min Rain = 0
KHA3 280218Z 14013KT 27/20 A2968 RMK A01 T02680196  RH  065%=      5-min Rain = 0
KHA3 280219Z 14012KT 27/20 A2968 RMK A01 T02690196  RH  065%=      5-min Rain = 0
KHA3 280220Z 14014KT 27/20 A2968 RMK A01 T02680196  RH  065%=      5-min Rain = 0
KHA3 280221Z 14013KT 27/20 A2968 RMK A01 T02680196  RH  065%=      5-min Rain = 0
KHA3 280222Z 14012KT 27/20 A2968 RMK A01 T02680196  RH  065%=      5-min Rain = 0
KHA3 280223Z 14014KT 27/20 A2968 RMK A01 T02670196  RH  065%=      5-min Rain = 0
KHA3 280224Z 14012KT 27/20 A2968 RMK A01 T02670195  RH  065%=      5-min Rain = 0
KHA3 280225Z 14013KT 27/20 A2968 RMK A01 T02670196  RH  065%=      5-min Rain = 0
KHA3 280226Z 14014KT 27/20 A2968 RMK A01 T02670195  RH  065%=      5-min Rain = 0
KHA3 280227Z 14014KT 27/20 A2968 RMK A01 T02670195  RH  064%=      5-min Rain = 0
KHA3 280228Z 14012KT 27/20 A2968 RMK A01 T02680196  RH  065%=      5-min Rain = 0
KHA3 280229Z 14013KT 27/20 A2968 RMK A01 T02670196  RH  065%=      5-min Rain = 0
KHA3 280230Z 14013KT 27/20 A2968 RMK A01 T02660195  RH  065%=      5-min Rain = 0
KHA3 280231Z 14012KT 27/20 A2968 RMK A01 T02660196  RH  065%=      5-min Rain = 0
KHA3 280232Z 14013KT 27/20 A2968 RMK A01 T02650195  RH  066%=      5-min Rain = 0
KHA3 280233Z 14012KT 27/20 A2968 RMK A01 T02650195  RH  066%=      5-min Rain = 0
KHA3 280234Z 15013KT 26/20 A2968 RMK A01 T02640195  RH  066%=      5-min Rain = 0
KHA3 280235Z 14012KT 26/20 A2968 RMK A01 T02640196  RH  066%=      5-min Rain = 0
KHA3 280236Z 14014KT 26/20 A2968 RMK A01 T02640195  RH  066%=      5-min Rain = 0
KHA3 280237Z 14013KT 26/19 A2968 RMK A01 T02630194  RH  066%=      5-min Rain = 0
KHA3 280238Z 14012G17KT 26/19 A2968 RMK A01 T02630194  RH  066%=      5-min Rain = 0
KHA3 280239Z 14013KT 26/20 A2968 RMK A01 T02630195  RH  066%=      5-min Rain = 0
KHA3 280240Z 14013KT 26/20 A2968 RMK A01 T02640195  RH  066%=      5-min Rain = 0
KHA3 280241Z 14012G17KT 26/20 A2968 RMK A01 T02630195  RH  066%=      5-min Rain = 0
KHA3 280242Z 14013KT 26/20 A2968 RMK A01 T02630195  RH  066%=      5-min Rain = 0
KHA3 280243Z 14013KT 26/19 A2968 RMK A01 T02620194  RH  066%=      5-min Rain = 0
KHA3 280244Z 14012KT 26/20 A2968 RMK A01 T02620195  RH  066%=      5-min Rain = 0
KHA3 280245Z 14013KT 26/19 A2968 RMK A01 T02620194  RH  066%=      5-min Rain = 0
KHA3 280246Z 14013KT 26/19 A2968 RMK A01 T02620194  RH  066%=      5-min Rain = 0
KHA3 280247Z 14012KT 26/19 A2968 RMK A01 T02610194  RH  066%=      5-min Rain = 0
KHA3 280248Z 14015KT 26/19 A2968 RMK A01 T02610193  RH  066%=      5-min Rain = 0
KHA3 280249Z 14014KT 26/19 A2968 RMK A01 T02610193  RH  066%=      5-min Rain = 0
KHA3 280250Z 14014KT 26/19 A2969 RMK A01 T02620193  RH  066%=      5-min Rain = 0
KHA3 280251Z 14014KT 26/19 A2969 RMK A01 T02620193  RH  066%=      5-min Rain = 0
KHA3 280252Z 14014KT 26/19 A2969 RMK A01 T02620193  RH  066%=      5-min Rain = 0
KHA3 280253Z 14015KT 26/19 A2969 RMK A01 T02620192  RH  065%=      5-min Rain = 0
KHA3 280254Z 14015KT 26/19 A2969 RMK A01 T02620193  RH  066%=      5-min Rain = 0
KHA3 280255Z 14014KT 26/19 A2969 RMK A01 T02620193  RH  066%=      5-min Rain = 0
KHA3 280256Z 14014KT 26/19 A2969 RMK A01 T02610193  RH  066%=      5-min Rain = 0
KHA3 280257Z 14013KT 26/19 A2969 RMK A01 T02610193  RH  066%=      5-min Rain = 0
KHA3 280258Z 14015KT 26/19 A2969 RMK A01 T02610193  RH  066%=      5-min Rain = 0
KHA3 280259Z 14015KT 26/19 A2969 RMK A01 T02610192  RH  066%=      5-min Rain = 0
KHA3 280300Z 15012KT 26/19 A2969 RMK A01 T02610192  RH  066%=      5-min Rain = 0
KHA3 280301Z 14015KT 26/19 A2969 RMK A01 T02610193  RH  066%=      5-min Rain = 0
KHA3 280302Z 14012G17KT 26/19 A2969 RMK A01 T02600193  RH  067%=      5-min Rain = 0
KHA3 280303Z 14015KT 26/19 A2969 RMK A01 T02600193  RH  067%=      5-min Rain = 0
KHA3 280304Z 14013KT 26/19 A2969 RMK A01 T02590193  RH  067%=      5-min Rain = 0
KHA3 280305Z 14015KT 26/19 A2969 RMK A01 T02590192  RH  067%=      5-min Rain = 0
KHA3 280306Z 14012KT 26/19 A2969 RMK A01 T02590192  RH  067%=      5-min Rain = 0
KHA3 280307Z 15013KT 26/19 A2969 RMK A01 T02590192  RH  067%=      5-min Rain = 0
KHA3 280308Z 14015KT 26/19 A2969 RMK A01 T02590192  RH  067%=      5-min Rain = 0
KHA3 280309Z 14013KT 26/19 A2969 RMK A01 T02590192  RH  067%=      5-min Rain = 0
KHA3 280310Z 14014KT 26/19 A2969 RMK A01 T02590192  RH  066%=      5-min Rain = 0
KHA3 280311Z 14013KT 26/19 A2969 RMK A01 T02590192  RH  066%=      5-min Rain = 0
KHA3 280312Z 14013KT 26/19 A2969 RMK A01 T02590192  RH  067%=      5-min Rain = 0
KHA3 280313Z 14014KT 26/19 A2969 RMK A01 T02580192  RH  067%=      5-min Rain = 0
KHA3 280314Z 14014KT 26/19 A2969 RMK A01 T02580192  RH  067%=      5-min Rain = 0
KHA3 280315Z 14013KT 26/19 A2969 RMK A01 T02590192  RH  067%=      5-min Rain = 0
KHA3 280316Z 14012KT 26/19 A2969 RMK A01 T02580192  RH  067%=      5-min Rain = 0
KHA3 280317Z 14012KT 26/19 A2969 RMK A01 T02580193  RH  067%=      5-min Rain = 0
KHA3 280318Z 14014KT 26/19 A2969 RMK A01 T02570192  RH  067%=      5-min Rain = 0
KHA3 280319Z 14013KT 26/19 A2969 RMK A01 T02570192  RH  067%=      5-min Rain = 0
KHA3 280320Z 14014KT 26/19 A2969 RMK A01 T02570192  RH  067%=      5-min Rain = 0
KHA3 280321Z 14015KT 26/19 A2969 RMK A01 T02580192  RH  067%=      5-min Rain = 0
KHA3 280322Z 14013G18KT 26/19 A2969 RMK A01 T02580193  RH  067%=      5-min Rain = 0
KHA3 280323Z 14015KT 26/19 A2969 RMK A01 T02580193  RH  067%=      5-min Rain = 0
KHA3 280324Z 14013KT 26/19 A2969 RMK A01 T02570192  RH  067%=      5-min Rain = 0
KHA3 280325Z 14013KT 26/19 A2969 RMK A01 T02570192  RH  067%=      5-min Rain = 0
KHA3 280326Z 14013KT 26/19 A2969 RMK A01 T02570192  RH  067%=      5-min Rain = 0
KHA3 280327Z 14014KT 26/19 A2969 RMK A01 T02570192  RH  067%=      5-min Rain = 0
KHA3 280328Z 14014KT 26/19 A2969 RMK A01 T02570193  RH  068%=      5-min Rain = 0
KHA3 280329Z 14013KT 26/19 A2969 RMK A01 T02560193  RH  068%=      5-min Rain = 0
KHA3 280330Z 15013KT 26/19 A2969 RMK A01 T02550193  RH  068%=      5-min Rain = 0
KHA3 280331Z 15014KT 26/19 A2969 RMK A01 T02550193  RH  069%=      5-min Rain = 0
KHA3 280332Z 14014KT 26/19 A2969 RMK A01 T02550193  RH  069%=      5-min Rain = 0
KHA3 280333Z 14015KT 26/19 A2969 RMK A01 T02550193  RH  069%=      5-min Rain = 0
KHA3 280334Z 14014KT 26/19 A2969 RMK A01 T02550193  RH  069%=      5-min Rain = 0
KHA3 280335Z 14014KT 26/19 A2969 RMK A01 T02550193  RH  069%=      5-min Rain = 0
KHA3 280336Z 14014KT 26/19 A2969 RMK A01 T02550193  RH  069%=      5-min Rain = 0
KHA3 280337Z 14014KT 25/19 A2969 RMK A01 T02540193  RH  069%=      5-min Rain = 0
KHA3 280338Z 14015KT 25/19 A297 RMK A01 T02540193  RH  069%=      5-min Rain = 0
KHA3 280339Z 14014KT 25/19 A2969 RMK A01 T02540193  RH  069%=      5-min Rain = 0
KHA3 280340Z 14015KT 25/19 A297 RMK A01 T02540193  RH  069%=      5-min Rain = 0
KHA3 280341Z 14015KT 26/19 A2969 RMK A01 T02550193  RH  068%=      5-min Rain = 0
KHA3 280342Z 14013KT 26/19 A297 RMK A01 T02550193  RH  068%=      5-min Rain = 0
KHA3 280343Z 14014KT 26/19 A297 RMK A01 T02550193  RH  068%=      5-min Rain = 0
KHA3 280344Z 14014KT 26/19 A297 RMK A01 T02550194  RH  069%=      5-min Rain = 0
KHA3 280345Z 14015KT 26/19 A297 RMK A01 T02550193  RH  069%=      5-min Rain = 0
KHA3 280346Z 14013KT 26/19 A297 RMK A01 T02550193  RH  069%=      5-min Rain = 0
KHA3 280347Z 14013KT 25/19 A297 RMK A01 T02540194  RH  069%=      5-min Rain = 0
KHA3 280348Z 14014KT 25/19 A297 RMK A01 T02540193  RH  069%=      5-min Rain = 0
KHA3 280349Z 14013KT 25/19 A297 RMK A01 T02540194  RH  069%=      5-min Rain = 0
KHA3 280350Z 14012KT 25/19 A297 RMK A01 T02530194  RH  070%=      5-min Rain = 0
KHA3 280351Z 14013G18KT 25/19 A297 RMK A01 T02520194  RH  070%=      5-min Rain = 0
KHA3 280352Z 14014KT 25/19 A297 RMK A01 T02520194  RH  070%=      5-min Rain = 0
KHA3 280353Z 14014KT 25/19 A297 RMK A01 T02510194  RH  070%=      5-min Rain = 0
KHA3 280354Z 14014KT 25/19 A297 RMK A01 T02510194  RH  070%=      5-min Rain = 0
KHA3 280355Z 14015KT 25/19 A297 RMK A01 T02510194  RH  070%=      5-min Rain = 0
KHA3 280356Z 14015KT 25/19 A297 RMK A01 T02510194  RH  071%=      5-min Rain = 0
KHA3 280357Z 14015KT 25/19 A297 RMK A01 T02510194  RH  071%=      5-min Rain = 0
KHA3 280358Z 14014G19KT 25/19 A297 RMK A01 T02510194  RH  071%=      5-min Rain = 0
KHA3 280359Z 15015KT 25/20 A297 RMK A01 T02520195  RH  071%=      5-min Rain = 0
KHA3 280400Z 15014KT 25/20 A297 RMK A01 T02510195  RH  071%=      5-min Rain = 0
KHA3 280401Z 14014KT 25/20 A297 RMK A01 T02510195  RH  071%=      5-min Rain = 0
KHA3 280402Z 14016G21KT 25/20 A297 RMK A01 T02510195  RH  071%=      5-min Rain = 0
KHA3 280403Z 14014KT 25/20 A297 RMK A01 T02510195  RH  071%=      5-min Rain = 0
KHA3 280404Z 14013KT 25/20 A297 RMK A01 T02510195  RH  071%=      5-min Rain = 0
KHA3 280405Z 14014G19KT 25/20 A297 RMK A01 T02510195  RH  071%=      5-min Rain = 0
KHA3 280406Z 15014KT 25/20 A297 RMK A01 T02510195  RH  071%=      5-min Rain = 0
KHA3 280407Z 14014G20KT 25/20 A297 RMK A01 T02500195  RH  071%=      5-min Rain = 0
KHA3 280408Z 14015KT 25/20 A297 RMK A01 T02500195  RH  071%=      5-min Rain = 0
KHA3 280409Z 14014G19KT 25/20 A297 RMK A01 T02500195  RH  071%=      5-min Rain = 0
KHA3 280410Z 14014KT 25/20 A297 RMK A01 T02500195  RH  071%=      5-min Rain = 0
KHA3 280411Z 14013KT 25/20 A297 RMK A01 T02500195  RH  071%=      5-min Rain = 0
KHA3 280412Z 14015KT 25/20 A297 RMK A01 T02500196  RH  072%=      5-min Rain = 0
KHA3 280413Z 14015KT 25/20 A297 RMK A01 T02500195  RH  071%=      5-min Rain = 0
KHA3 280414Z 15014KT 25/20 A297 RMK A01 T02510195  RH  071%=      5-min Rain = 0
KHA3 280415Z 14014KT 25/20 A297 RMK A01 T02510195  RH  071%=      5-min Rain = 0
KHA3 280416Z 15014KT 25/20 A297 RMK A01 T02500196  RH  072%=      5-min Rain = 0
KHA3 280417Z 15013KT 25/20 A297 RMK A01 T02490196  RH  072%=      5-min Rain = 0
KHA3 280418Z 14016KT 25/20 A297 RMK A01 T02480195  RH  072%=      5-min Rain = 0
KHA3 280419Z 14015KT 25/20 A297 RMK A01 T02490195  RH  072%=      5-min Rain = 0
KHA3 280420Z 15015KT 25/20 A297 RMK A01 T02490195  RH  072%=      5-min Rain = 0
KHA3 280421Z 15014KT 25/20 A297 RMK A01 T02490195  RH  072%=      5-min Rain = 0
KHA3 280422Z 15014KT 25/20 A297 RMK A01 T02480195  RH  072%=      5-min Rain = 0
KHA3 280423Z 15014KT 25/20 A297 RMK A01 T02480196  RH  073%=      5-min Rain = 0
KHA3 280424Z 15014KT 25/20 A297 RMK A01 T02470195  RH  073%=      5-min Rain = 0
KHA3 280425Z 15016KT 25/20 A297 RMK A01 T02480196  RH  073%=      5-min Rain = 0
KHA3 280426Z 15014KT 25/20 A297 RMK A01 T02470195  RH  073%=      5-min Rain = 0
KHA3 280427Z 14013KT 25/20 A297 RMK A01 T02480196  RH  073%=      5-min Rain = 0
KHA3 280428Z 15014KT 25/20 A297 RMK A01 T02470196  RH  073%=      5-min Rain = 0
KHA3 280429Z 15015KT 25/20 A297 RMK A01 T02470196  RH  073%=      5-min Rain = 0
KHA3 280430Z 15015KT 25/20 A297 RMK A01 T02470196  RH  073%=      5-min Rain = 0
KHA3 280431Z 15016KT 25/20 A297 RMK A01 T02470196  RH  073%=      5-min Rain = 0
KHA3 280432Z 15014KT 25/20 A297 RMK A01 T02470196  RH  073%=      5-min Rain = 0
KHA3 280433Z 15014KT 25/20 A2969 RMK A01 T02470196  RH  073%=      5-min Rain = 0
KHA3 280434Z 15013KT 25/20 A2969 RMK A01 T02460196  RH  073%=      5-min Rain = 0
KHA3 280435Z 14015KT 25/20 A2969 RMK A01 T02460196  RH  074%=      5-min Rain = 0
KHA3 280436Z 15015KT 25/20 A2969 RMK A01 T02460196  RH  074%=      5-min Rain = 0
KHA3 280437Z 14013KT 25/20 A2969 RMK A01 T02460196  RH  074%=      5-min Rain = 0
KHA3 280438Z 15014G19KT 25/20 A2969 RMK A01 T02460196  RH  074%=      5-min Rain = 0
KHA3 280439Z 15014KT 25/20 A2969 RMK A01 T02460196  RH  074%=      5-min Rain = 0
KHA3 280440Z 15013KT 25/20 A2969 RMK A01 T02460197  RH  074%=      5-min Rain = 0
KHA3 280441Z 15016KT 25/20 A2969 RMK A01 T02450197  RH  074%=      5-min Rain = 0
KHA3 280442Z 15014KT 25/20 A2969 RMK A01 T02450196  RH  074%=      5-min Rain = 0
KHA3 280443Z 15014KT 25/20 A2969 RMK A01 T02450196  RH  074%=      5-min Rain = 0
KHA3 280444Z 15014KT 25/20 A2969 RMK A01 T02450196  RH  074%=      5-min Rain = 0
KHA3 280445Z 15014KT 25/20 A2969 RMK A01 T02450197  RH  074%=      5-min Rain = 0
KHA3 280446Z 15012KT 25/20 A2969 RMK A01 T02450196  RH  074%=      5-min Rain = 0
KHA3 280447Z 15014KT 24/20 A2969 RMK A01 T02440197  RH  075%=      5-min Rain = 0
KHA3 280448Z 15013KT 24/20 A2969 RMK A01 T02440197  RH  075%=      5-min Rain = 0
KHA3 280449Z 15012KT 24/20 A2969 RMK A01 T02430197  RH  076%=      5-min Rain = 0
KHA3 280450Z 15013KT 24/20 A2969 RMK A01 T02420197  RH  076%=      5-min Rain = 0
KHA3 280451Z 15015KT 24/20 A2969 RMK A01 T02420197  RH  076%=      5-min Rain = 0
KHA3 280452Z 15015KT 24/20 A2969 RMK A01 T02430196  RH  075%=      5-min Rain = 0
KHA3 280453Z 15014KT 24/20 A2969 RMK A01 T02430197  RH  075%=      5-min Rain = 0
KHA3 280454Z 15011KT 24/20 A2969 RMK A01 T02430197  RH  075%=      5-min Rain = 0
KHA3 280455Z 15013KT 24/20 A2969 RMK A01 T02430198  RH  076%=      5-min Rain = 0
KHA3 280456Z 15013G18KT 24/20 A2969 RMK A01 T02420197  RH  076%=      5-min Rain = 0
KHA3 280457Z 15012KT 24/20 A2969 RMK A01 T02420197  RH  076%=      5-min Rain = 0
KHA3 280458Z 15012KT 24/20 A2969 RMK A01 T02420197  RH  076%=      5-min Rain = 0
KHA3 280459Z 15014KT 24/20 A2969 RMK A01 T02410197  RH  076%=      5-min Rain = 0

Page generated in 0.0722 seconds.